GFSNGP_700_spd_000.txt.gz
Wind_Speed
23 20 20 29 31 28 31 27 28 28 30 36 30 22 27 35 38 40 44 46 44 49 42 47 46 44 50 51 51 53 52 49 44 35 39 37 37 37 37 29 27 31 32 36
28 26 22 31 30 18 15 17 27 36 35 26 30 33 33 37 44 43 49 49 47 43 48 40 45 48 48 51 51 51 49 42 30 29 36 37 34 34 34 34 32 34 36 39
11 18 21 26 11 19 23 27 26 26 33 37 38 37 39 45 47 49 45 41 40 40 42 45 47 50 52 51 51 49 39 27 22 23 27 31 36 35 34 34 36 39 40 39
15 20 4 18 25 26 26 21 26 31 35 38 38 47 48 51 45 47 40 32 35 40 43 46 49 51 53 51 47 37 28 25 22 22 24 28 28 31 32 37 40 42 40 38
8 9 22 30 18 14 22 27 29 21 29 38 45 51 49 49 45 39 37 33 34 38 44 49 51 52 51 47 34 29 29 28 26 26 27 24 24 36 39 40 40 38 37 36
22 12 6 26 26 21 16 31 21 41 50 46 45 47 51 52 41 32 30 35 38 43 50 52 51 48 44 35 29 29 30 28 27 26 29 33 34 38 38 37 36 35 35 35
27 24 18 34 25 16 15 32 49 44 38 42 46 44 53 45 42 42 34 36 43 49 48 48 45 41 32 33 31 28 25 26 29 31 32 34 34 34 34 33 33 34 34 34
20 13 15 18 16 28 45 56 51 45 46 44 48 53 57 44 33 35 39 45 46 47 46 42 37 29 25 27 26 29 31 30 31 32 32 32 31 31 32 33 34 34 33 33
30 35 40 44 43 40 40 42 44 45 47 52 48 54 31 27 33 42 42 46 48 47 43 35 31 26 25 29 28 27 29 31 30 30 30 30 31 31 32 33 34 33 33 32
43 46 43 38 35 34 38 41 45 47 52 50 53 40 32 36 42 45 47 48 47 43 34 28 30 26 28 24 26 30 30 28 28 29 29 30 30 33 32 32 32 33 33 32
44 37 37 36 37 41 43 45 48 50 40 48 33 25 40 42 44 45 46 46 41 34 24 26 33 31 26 23 29 28 26 26 28 30 30 31 31 31 31 31 32 32 33 32
46 36 42 44 43 44 45 44 45 37 28 17 30 42 43 42 43 46 46 43 34 30 31 29 28 24 23 27 28 25 24 27 30 31 32 31 30 28 29 30 29 31 30 30
39 41 37 38 41 44 50 41 37 27 29 42 41 39 39 42 44 44 43 37 31 27 26 24 24 25 28 28 24 24 26 30 31 31 31 29 28 28 29 29 28 28 28 25
33 34 39 40 41 36 27 23 28 36 36 37 42 40 40 44 44 43 40 35 27 23 24 25 26 27 27 25 25 27 30 32 32 30 29 28 28 30 30 29 28 25 25 21
39 39 37 40 44 45 35 32 37 38 40 40 42 42 43 44 44 41 38 34 29 25 26 26 26 25 25 24 27 30 32 32 29 28 26 26 28 28 29 28 26 26 21 18
33 33 35 38 30 29 30 36 41 44 45 43 41 42 44 43 40 37 38 33 29 26 24 23 21 21 22 25 28 30 31 28 26 25 25 27 26 28 27 26 25 23 20 16
31 32 33 33 32 36 36 41 46 45 44 43 42 44 43 40 37 36 32 30 25 21 21 21 21 23 25 27 28 28 25 24 22 24 25 25 27 27 26 25 24 21 20 14
30 29 26 27 33 37 41 45 49 45 42 41 43 43 41 38 35 33 28 21 20 19 20 22 23 25 26 25 25 23 22 21 20 22 22 24 27 26 24 23 22 22 18 12
22 24 28 31 38 44 44 44 42 42 42 41 40 40 37 35 29 26 20 16 18 19 21 23 24 24 22 21 21 20 19 17 20 21 21 24 27 25 24 22 22 19 19 13
29 36 41 45 47 44 43 43 43 43 43 41 40 38 33 26 23 18 14 17 18 19 21 21 20 18 17 18 17 15 15 17 19 20 20 24 26 24 23 23 20 17 19 17
42 46 49 46 43 43 44 43 43 43 42 39 38 33 24 21 16 12 15 16 17 18 18 18 17 16 16 16 16 17 17 18 19 19 20 23 25 23 22 23 19 16 17 18
46 42 40 41 43 45 45 44 40 38 36 35 33 26 20 16 12 12 15 15 16 17 17 16 16 15 15 16 16 18 18 17 18 17 19 22 23 22 21 21 19 16 15 16
38 39 41 44 44 45 46 42 36 33 32 31 28 21 17 13 10 13 13 15 14 15 16 16 15 15 14 14 16 17 17 17 17 16 19 20 22 21 21 19 18 17 14 14
38 40 42 42 41 41 40 35 31 30 27 26 24 19 15 10 11 14 14 14 14 15 16 16 15 14 14 15 16 16 16 15 16 16 17 20 20 20 20 18 17 16 14 12
39 40 38 37 37 36 35 31 28 26 24 22 18 17 13 10 13 14 15 14 14 15 16 16 15 14 14 15 16 14 14 14 15 17 18 18 19 19 18 17 16 15 13 11
36 37 37 35 33 34 32 30 27 24 22 17 15 15 10 11 14 14 15 14 14 15 16 16 15 15 15 15 15 14 13 14 15 16 18 19 18 17 16 15 15 13 12 11
38 36 37 33 28 29 28 25 24 22 17 13 14 15 11 12 14 15 16 15 14 15 16 16 15 14 14 14 15 15 14 15 16 17 18 19 17 16 15 13 13 13 12 11

GFSNGP_700_spd_003.txt.gz
Wind_Speed
22 21 22 29 30 27 29 28 24 30 29 35 33 32 29 32 37 40 45 51 53 48 43 41 39 40 43 45 52 55 54 53 51 44 32 28 33 36 36 35 34 30 32 35
30 22 15 29 30 16 15 21 24 29 35 28 34 34 32 35 43 51 52 50 48 43 38 39 38 42 46 51 53 54 55 50 40 29 26 26 26 26 26 25 27 32 36 39
10 19 18 23 5 21 24 28 33 35 28 31 32 36 46 51 51 52 51 50 51 46 37 33 39 46 47 49 51 53 50 40 30 28 24 28 31 33 33 29 31 36 39 41
14 19 3 17 26 30 28 23 25 25 29 25 42 49 50 44 48 50 49 51 47 37 35 40 43 47 50 50 49 45 37 33 32 30 29 28 30 31 30 33 38 39 40 40
11 13 22 34 22 22 24 30 34 27 24 38 53 49 47 47 44 52 51 52 40 38 44 43 46 49 49 46 41 34 34 33 30 27 28 30 33 36 36 37 40 39 38 37
22 12 6 27 27 24 25 33 21 21 37 52 49 46 48 44 47 50 41 45 35 42 45 44 48 48 43 39 33 29 28 31 34 36 35 32 32 35 36 36 35 35 36 38
29 29 21 28 23 21 17 19 35 47 44 47 45 45 47 49 56 47 34 43 40 41 46 48 46 41 34 34 34 32 33 33 30 32 32 32 33 35 35 35 35 36 36 36
18 12 15 22 26 30 42 48 43 41 45 47 48 50 46 57 35 31 41 39 40 43 45 45 40 35 33 34 34 35 30 30 32 32 32 32 33 34 34 34 34 35 35 34
22 25 44 46 47 37 36 38 41 42 45 44 52 51 42 31 33 43 41 40 43 45 44 40 34 32 31 31 34 29 27 33 32 31 31 33 34 34 34 34 34 34 34 34
33 44 38 38 39 31 32 37 40 44 43 48 50 36 32 39 39 41 42 41 43 42 40 34 29 28 38 38 27 26 32 32 30 30 33 35 35 35 34 34 33 34 34 33
43 37 41 37 39 41 42 36 35 43 45 34 31 32 43 43 44 42 42 42 43 41 37 32 29 28 24 22 25 30 31 30 30 34 36 35 34 33 32 32 33 34 34 33
39 41 36 39 44 37 32 45 44 43 34 30 34 37 38 40 39 40 42 42 41 37 35 32 28 25 23 25 28 31 28 29 33 36 36 33 30 29 30 31 31 33 32 30
41 29 32 38 34 39 39 35 31 38 32 32 35 38 40 41 40 41 41 41 41 37 32 33 31 28 25 26 29 29 29 31 34 35 31 29 28 29 31 30 31 31 29 28
30 32 32 37 38 33 36 40 33 30 31 34 34 39 42 40 40 42 42 40 40 38 34 33 29 24 24 26 26 28 31 33 33 30 27 26 28 30 31 32 30 26 26 24
31 27 26 26 29 31 31 32 38 36 38 41 44 46 47 44 44 44 43 40 38 35 33 29 21 22 24 25 27 29 31 32 28 25 25 26 27 29 31 30 29 27 23 25
27 25 25 27 26 30 31 34 38 39 42 47 50 45 45 44 44 44 41 38 34 31 26 18 19 21 23 25 27 27 27 25 23 22 24 25 26 30 31 29 28 25 26 22
23 26 27 29 37 43 42 38 43 47 46 42 41 41 43 42 43 42 37 32 28 24 17 17 20 22 24 25 24 22 22 21 20 22 24 24 27 30 29 28 27 25 23 19
27 33 36 37 39 39 42 46 44 45 44 43 43 44 43 43 41 38 31 27 22 15 16 18 20 22 21 19 19 20 19 18 20 22 23 23 27 30 28 27 26 22 22 19
25 29 31 35 46 49 51 47 43 43 45 45 44 41 40 41 38 31 25 20 14 15 16 18 18 19 17 18 18 17 17 18 21 21 21 23 28 28 27 26 25 21 21 20
32 38 43 47 50 47 44 43 46 46 44 43 42 39 37 36 33 24 19 12 12 14 15 16 16 16 16 17 17 17 18 19 18 19 19 22 26 26 25 24 25 23 21 19
44 46 47 50 44 42 44 45 46 44 42 43 41 38 35 31 27 20 13 10 13 14 14 16 16 16 15 15 16 17 18 17 17 18 18 21 24 25 25 23 23 23 22 19
49 50 44 42 41 42 43 44 42 41 41 40 36 32 30 28 22 16 9 13 13 14 14 16 17 16 15 15 15 17 18 17 17 17 18 20 22 24 24 23 21 21 20 18
41 38 38 38 40 42 42 38 39 38 36 35 30 29 29 23 20 13 10 13 14 14 14 15 16 15 14 14 15 17 17 17 16 16 17 18 20 21 22 22 20 19 18 16
36 37 37 39 37 39 39 35 36 35 32 31 28 27 24 19 19 11 12 13 14 14 14 15 15 14 14 15 16 17 16 15 15 16 17 19 20 20 20 19 19 17 16 14
35 36 36 37 38 39 38 35 33 30 28 26 25 24 18 18 17 10 14 14 16 15 15 15 15 15 15 16 16 15 15 15 15 16 18 19 21 20 19 18 17 17 16 15
32 34 36 36 34 31 28 29 29 27 24 22 22 17 14 15 13 11 15 16 17 16 15 16 15 14 14 14 14 15 16 16 17 18 19 20 21 21 19 17 16 15 15 15
33 33 33 32 30 30 28 26 24 21 20 20 16 13 14 15 13 12 14 16 18 17 15 15 14 13 13 12 14 16 18 19 19 19 19 20 21 21 21 19 16 15 13 13

GFSNGP_700_spd_006.txt.gz
Wind_Speed
19 18 20 25 26 25 24 28 25 30 27 29 34 29 29 30 34 45 45 43 48 49 49 48 47 51 45 40 45 47 51 54 56 54 47 38 30 30 27 28 29 30 28 31
25 18 16 30 31 20 8 20 27 28 34 33 28 29 26 33 47 49 46 49 50 51 55 50 45 38 41 45 49 53 54 54 50 43 37 33 32 30 30 29 23 25 31 35
17 21 20 23 5 12 25 22 24 32 31 30 30 34 33 42 52 51 48 50 42 55 47 36 40 42 44 47 52 54 52 47 38 38 33 34 32 32 33 34 35 36 37 37
13 19 2 17 18 29 26 20 28 27 30 35 37 36 39 48 50 52 47 53 50 47 35 39 43 46 47 49 51 50 43 39 37 33 32 35 37 35 33 33 34 36 36 37
10 11 21 32 23 20 29 33 28 29 31 34 34 43 47 52 49 32 48 47 30 34 39 42 44 47 50 50 48 44 37 35 34 36 35 31 30 31 31 32 34 35 36 36
17 9 5 23 25 23 23 32 18 20 23 44 39 42 47 47 48 48 51 34 39 44 46 43 45 46 45 45 42 37 38 38 35 32 31 31 31 31 32 35 36 36 35 36
26 20 22 27 17 16 16 21 33 43 41 36 37 41 44 37 56 48 34 45 47 43 41 43 45 44 42 40 40 37 35 35 29 31 33 32 31 34 36 36 36 36 35 35
16 10 11 6 20 31 38 44 45 48 42 41 40 38 44 41 39 35 42 44 43 43 44 45 45 42 38 37 32 37 38 29 31 34 33 32 34 37 38 36 36 35 34 33
21 24 41 46 47 32 38 41 41 46 39 32 44 37 31 29 32 37 40 45 40 41 43 44 44 40 36 33 33 29 27 30 34 32 32 34 38 38 36 35 34 34 35 35
34 39 34 29 32 32 36 38 41 39 33 39 36 30 31 30 34 39 44 41 41 42 43 42 40 36 33 30 28 28 29 32 33 32 33 37 38 35 34 33 33 35 36 35
37 33 37 32 34 36 36 38 33 40 32 29 33 30 34 35 36 39 40 38 41 43 43 41 38 36 33 29 28 28 30 31 32 34 37 37 34 31 31 33 35 37 37 35
40 30 38 33 35 34 39 42 39 27 34 30 30 33 34 37 43 41 39 39 44 46 42 40 39 36 32 29 26 27 28 30 32 35 36 34 30 28 30 32 35 35 33 33
34 37 31 31 35 33 34 30 31 31 31 35 37 35 39 44 42 41 41 43 45 47 41 39 37 34 30 25 25 26 28 31 33 34 31 29 28 30 31 32 33 33 31 29
28 29 31 29 26 27 30 27 32 35 35 37 41 45 47 42 42 42 44 45 45 43 38 35 32 30 23 24 25 26 29 30 31 29 28 26 28 29 32 35 32 29 27 28
32 28 26 29 26 26 31 37 40 40 40 46 50 47 44 43 44 44 43 44 43 37 34 31 27 21 21 24 26 27 27 27 25 24 24 26 28 29 33 33 31 30 26 25
28 29 30 30 28 33 38 40 42 44 50 53 54 53 48 46 46 45 43 42 40 34 29 24 18 19 21 23 23 22 21 22 22 22 24 26 27 30 32 30 30 29 26 25
28 31 29 32 35 35 38 40 44 51 56 56 48 47 49 48 47 43 41 39 34 29 22 15 17 19 20 19 18 20 20 21 22 23 25 24 26 30 30 29 29 28 27 26
32 31 33 35 36 39 43 48 51 51 45 45 47 48 47 46 46 42 39 36 29 22 15 15 17 18 18 17 18 19 20 21 23 22 22 22 25 29 29 28 27 27 26 25
29 32 33 37 44 49 51 51 46 45 44 45 45 43 42 42 40 36 34 32 23 16 13 15 16 17 17 17 18 19 19 21 22 21 21 21 24 27 28 27 26 26 26 25
32 35 42 49 52 52 48 43 42 43 43 42 40 39 39 37 33 32 32 26 19 12 14 15 16 16 17 17 17 18 19 20 21 21 20 20 22 25 26 27 25 24 24 24
43 48 50 50 48 44 40 40 42 41 39 38 38 37 36 33 31 32 29 22 15 13 15 15 15 16 17 17 16 16 18 20 20 20 20 20 22 24 25 25 25 24 22 21
49 49 44 42 39 39 39 41 39 40 40 37 34 36 34 31 30 28 20 20 13 13 15 14 15 16 16 16 15 15 17 19 18 18 19 20 21 22 24 24 23 22 21 20
41 40 38 38 39 40 40 40 40 41 39 36 34 33 29 27 27 20 18 17 14 14 15 15 15 16 16 15 15 16 17 17 17 17 18 19 21 22 23 22 21 20 20 18
36 36 35 35 36 37 38 37 33 30 31 30 31 28 25 25 20 15 17 14 14 15 17 16 16 17 16 15 15 15 15 16 17 18 19 20 21 22 23 22 20 19 18 17
33 32 34 34 34 35 36 36 35 33 30 28 27 24 22 19 13 12 14 14 15 16 18 18 17 17 17 15 14 14 14 15 17 19 20 22 23 24 24 23 21 19 17 16
30 31 32 34 33 33 35 35 35 32 28 27 25 23 17 13 11 12 15 15 17 18 18 18 16 16 15 14 13 13 15 17 18 19 20 21 22 23 24 23 22 19 17 16
27 29 32 31 31 32 35 35 32 29 25 25 20 14 14 14 14 14 15 15 17 17 17 16 14 13 14 13 13 14 16 17 18 18 20 21 23 23 24 24 22 20 17 16

GFSNGP_700_spd_009.txt.gz
Wind_Speed
14 15 17 21 22 21 23 25 18 25 26 26 24 26 25 31 33 36 39 43 47 46 45 47 49 40 32 35 41 44 45 49 51 49 45 41 38 34 33 30 31 33 32 31
20 12 14 27 30 17 5 9 18 21 27 28 28 27 32 35 35 39 44 48 48 47 49 51 38 33 39 42 44 45 48 49 47 42 37 37 36 36 37 35 33 33 32 32
11 13 18 22 1 12 18 25 23 23 27 29 29 31 32 36 41 47 49 45 48 41 46 35 40 45 41 42 45 46 46 45 41 36 36 38 38 34 32 31 30 29 31 33
11 16 2 15 22 28 27 16 22 26 29 31 35 30 32 44 43 42 44 41 40 36 37 40 42 42 42 43 45 45 44 41 38 36 37 36 31 30 29 29 30 33 35 36
6 7 18 27 12 16 19 30 23 27 27 28 36 35 49 45 39 39 31 42 37 38 40 41 41 43 45 46 45 43 41 41 36 36 36 31 31 31 29 31 34 37 37 36
12 7 5 16 22 25 23 25 16 19 30 42 42 47 39 27 31 25 27 29 36 37 38 39 41 43 44 44 43 41 39 38 36 35 31 33 32 31 33 37 38 36 35 35
17 12 18 21 15 14 12 18 32 33 38 43 38 33 26 35 30 24 28 30 33 35 37 39 41 43 44 43 40 38 35 36 31 30 34 33 32 34 37 38 36 34 33 34
11 8 9 10 24 33 39 44 34 35 41 33 26 32 34 28 35 27 28 33 36 38 41 40 42 43 43 40 37 35 32 30 29 31 32 32 34 37 38 34 33 32 34 34
16 24 29 35 35 35 36 40 35 34 28 32 39 38 32 32 26 30 32 37 40 41 40 39 42 42 41 37 36 34 30 28 29 31 31 33 36 37 33 32 33 34 35 36
34 32 33 32 30 34 32 28 35 35 39 39 34 36 31 33 37 37 39 42 42 39 39 40 41 39 37 37 36 34 29 27 29 29 31 34 35 34 32 32 34 35 37 36
34 33 33 32 31 36 31 32 37 41 37 31 31 33 37 39 39 42 43 41 39 39 41 42 43 38 35 34 33 30 25 27 27 29 33 33 32 31 31 32 35 38 37 35
34 34 32 34 35 27 30 40 38 32 28 32 37 37 38 42 46 44 39 38 40 41 43 43 41 36 34 31 29 24 24 25 27 30 31 30 28 28 29 31 35 35 34 34
32 31 30 35 37 36 37 36 31 29 34 35 37 39 45 49 47 41 40 42 44 44 44 43 38 34 31 27 21 22 23 26 27 28 27 25 26 28 29 31 32 33 33 30
26 29 34 33 32 33 32 27 28 33 34 36 40 45 50 49 43 43 46 47 46 47 44 39 34 29 24 19 20 22 24 24 23 23 22 23 25 27 31 32 31 30 30 28
29 35 30 28 30 30 29 31 36 38 39 43 49 50 47 44 46 46 47 47 45 42 37 34 29 23 17 19 21 21 19 20 20 20 21 23 23 26 31 32 31 30 28 27
29 25 28 29 30 29 32 37 42 45 49 54 54 46 44 43 46 43 44 45 40 35 32 29 24 15 17 19 18 16 17 18 19 20 20 20 22 26 29 31 30 29 28 27
21 24 27 29 32 36 40 42 47 52 54 49 44 43 43 43 42 40 40 38 33 31 28 23 15 15 17 17 15 15 17 18 19 20 19 20 21 25 28 30 30 28 28 28
25 28 32 34 38 42 44 50 52 47 44 42 42 43 42 38 39 37 36 32 31 27 22 17 13 15 15 15 15 16 16 18 20 20 20 20 20 23 26 28 29 28 27 27
27 29 33 36 41 48 50 46 44 42 41 42 44 41 39 37 35 34 33 30 27 20 18 14 15 15 15 15 15 15 15 17 20 20 20 19 20 22 24 25 27 27 26 24
29 33 39 45 46 43 42 40 39 40 41 42 41 41 38 35 33 31 28 27 20 17 15 15 15 15 15 15 15 15 15 16 19 19 19 18 19 21 23 23 24 25 25 23
38 43 43 41 40 39 37 38 39 40 40 40 41 37 33 32 30 28 26 22 17 15 14 16 16 16 16 16 15 15 15 16 18 18 18 18 19 20 22 23 22 22 23 23
39 39 40 39 37 37 36 38 38 38 39 37 35 35 33 31 27 23 23 17 14 13 15 16 17 16 16 16 16 16 15 16 16 17 18 19 20 21 22 22 23 21 20 20
39 36 35 35 35 36 36 35 35 36 38 37 35 32 30 29 24 22 19 14 12 12 15 16 17 17 16 16 16 16 16 15 15 16 18 20 21 22 23 22 22 21 18 18
33 32 31 31 33 34 35 33 34 36 37 36 33 27 26 25 22 20 14 11 11 13 15 16 18 17 16 16 16 15 14 13 15 17 18 20 21 22 23 23 22 20 19 16
29 29 30 29 29 31 33 32 33 35 34 31 28 26 26 23 20 15 11 10 13 14 15 18 19 18 16 15 14 13 13 14 15 17 18 19 21 22 23 24 24 22 19 16
27 28 27 25 27 31 35 34 32 33 34 32 26 23 21 17 14 13 13 13 15 16 18 18 18 16 14 13 13 13 14 16 17 17 18 20 21 22 23 24 23 22 20 17
26 26 26 27 30 32 34 32 31 32 32 31 26 20 19 18 18 17 16 17 18 18 17 17 16 15 14 14 14 14 16 17 18 18 19 20 22 22 23 23 23 22 21 19

GFSNGP_700_spd_015.txt.gz
Wind_Speed
9 12 13 15 17 17 19 20 23 24 22 21 21 15 15 16 16 22 22 30 40 41 38 32 26 35 37 34 35 38 40 41 40 41 41 38 39 38 37 37 33 31 30 30
14 11 14 18 21 19 18 14 18 18 18 16 12 17 18 23 26 31 42 40 38 35 31 29 31 30 28 35 40 40 40 36 32 36 39 38 37 35 35 32 31 30 29 31
7 15 24 10 2 4 9 11 13 14 17 17 17 18 24 28 34 37 40 36 33 34 27 25 26 27 31 34 32 35 36 35 34 40 37 36 32 30 28 30 29 29 28 28
8 10 3 3 14 18 15 11 11 13 13 11 17 23 34 37 32 38 35 35 33 28 27 30 31 32 36 35 33 33 31 33 43 42 36 32 29 28 28 26 26 26 28 32
3 8 19 12 3 4 13 14 15 10 11 19 29 35 22 32 32 37 39 35 30 28 33 36 31 32 34 38 36 37 31 34 39 38 29 33 30 28 26 26 27 28 31 33
6 4 4 5 9 15 11 20 16 15 26 40 36 36 29 32 34 31 29 27 28 28 30 31 33 34 35 36 37 36 32 31 45 36 31 31 30 26 26 26 29 34 31 34
9 10 11 12 17 11 9 12 18 32 36 34 29 32 35 33 31 26 22 24 27 30 32 34 40 38 35 34 36 34 31 36 43 38 27 31 29 24 26 26 30 32 35 35
6 7 8 6 11 17 22 24 28 35 34 34 30 30 28 26 25 22 25 28 30 32 34 43 37 34 35 35 37 41 44 43 39 36 34 28 24 23 27 28 31 33 35 37
10 12 17 23 25 26 26 27 34 36 29 19 33 20 20 23 23 26 29 31 32 33 36 33 34 35 36 36 37 38 36 33 29 34 25 20 23 24 29 28 31 33 37 38
19 21 21 23 24 30 30 32 31 30 31 24 19 22 23 26 29 32 34 37 32 32 33 35 36 36 36 42 38 33 30 30 27 21 20 23 21 24 26 27 29 34 37 36
27 28 26 22 25 29 28 25 29 31 27 27 26 26 28 30 35 36 37 31 33 32 35 37 38 38 41 39 35 31 30 25 17 19 22 22 23 24 24 26 28 32 35 34
29 26 34 29 31 33 26 27 25 24 26 27 27 29 33 36 38 34 34 36 32 33 37 37 40 42 39 36 32 28 22 16 18 18 19 20 21 22 24 23 27 31 32 32
27 33 32 31 37 22 25 24 23 26 27 29 30 29 37 40 34 39 33 33 35 38 38 41 40 38 37 33 26 18 16 17 16 16 17 19 21 21 22 26 29 30 31 31
27 30 30 25 19 23 21 23 26 27 28 29 40 43 40 39 41 39 39 42 42 40 39 38 38 37 35 27 19 16 16 15 15 16 17 19 21 21 22 24 27 29 32 30
28 17 17 22 21 19 20 24 27 32 37 42 42 41 42 42 40 40 41 42 42 40 36 36 35 34 29 21 16 17 16 15 15 15 17 19 20 20 21 24 26 27 28 30
23 24 24 19 18 21 24 27 33 40 42 41 42 42 39 38 39 39 40 40 38 36 34 34 32 29 22 18 17 17 17 16 16 15 17 18 19 20 21 23 25 26 26 28
23 20 17 18 21 24 28 34 39 40 40 41 40 38 38 38 37 38 38 38 36 34 33 31 29 25 20 17 17 17 17 17 16 15 16 18 18 19 20 22 24 26 26 26
16 16 17 20 25 29 34 38 38 39 38 37 36 37 36 36 38 37 39 38 34 33 31 28 25 22 19 17 17 17 17 17 16 15 16 17 18 19 20 22 24 25 26 26
16 17 20 25 29 33 35 36 37 36 34 34 34 35 34 35 38 37 38 35 31 31 27 25 22 21 19 17 17 16 16 16 16 15 16 17 17 19 21 22 23 24 25 25
17 21 25 29 33 33 34 34 35 33 32 31 33 33 32 35 37 38 37 31 29 28 25 24 20 19 18 18 17 17 16 16 16 16 16 16 17 18 20 21 22 23 24 24
21 26 29 32 31 32 33 34 32 31 28 28 31 33 33 35 37 38 34 31 28 26 24 22 19 19 18 18 18 17 16 16 16 16 15 15 16 18 19 20 22 23 24 24
27 31 31 31 32 33 33 31 31 30 28 28 31 34 35 35 36 37 31 30 27 24 21 19 17 18 19 18 19 19 17 16 16 15 14 14 16 17 18 20 22 23 23 23
32 31 31 32 33 33 32 30 31 30 29 30 33 36 36 34 35 36 32 26 23 20 17 15 17 18 19 19 20 19 17 16 15 14 14 15 16 17 18 20 21 22 22 23
30 31 33 33 33 32 31 30 30 30 31 34 36 36 35 34 31 32 29 25 23 20 17 16 17 18 20 20 20 18 16 15 15 14 15 16 17 18 18 19 20 21 21 21
31 32 32 33 32 30 30 30 32 34 34 34 34 33 32 32 33 31 28 24 23 23 22 21 21 20 22 22 20 18 16 16 16 16 16 16 17 18 19 19 19 20 20 21
29 30 31 32 30 28 28 31 33 34 35 36 35 32 30 30 29 29 28 25 23 23 24 25 23 22 24 24 21 19 18 17 18 18 18 18 18 19 20 20 20 21 20 21
28 28 28 26 25 27 31 34 37 36 36 37 35 30 30 30 28 28 28 26 24 23 22 22 23 23 23 23 23 21 20 20 20 20 20 21 21 21 21 21 22 22 22 22

GFSNGP_700_spd_018.txt.gz
Wind_Speed
6 7 8 12 15 15 16 19 20 22 20 17 14 9 11 11 21 27 32 37 37 41 38 37 32 28 35 35 37 43 41 48 40 40 38 46 46 49 40 36 38 36 33 31
10 3 9 19 17 12 11 14 15 14 16 12 13 16 19 27 30 34 38 39 40 38 39 35 30 28 28 32 36 40 35 39 34 47 43 42 49 48 38 34 39 37 33 32
4 11 19 2 4 6 10 12 12 13 15 17 12 17 23 33 34 37 31 37 38 36 29 25 25 27 30 30 32 42 45 46 40 45 47 37 47 45 37 35 36 36 33 33
7 9 3 1 18 14 9 6 9 11 11 4 14 28 33 34 28 30 34 35 35 28 24 25 34 29 31 38 43 39 39 43 40 51 42 34 45 46 36 34 36 33 33 35
3 3 16 6 5 10 11 18 12 12 15 21 27 31 28 26 34 32 32 31 24 25 27 32 31 33 41 44 38 32 34 41 42 49 33 31 48 43 29 35 34 32 33 36
7 2 4 4 7 17 17 15 10 17 20 24 34 39 30 34 31 33 31 28 26 26 30 31 35 41 44 40 38 35 39 44 45 40 39 38 46 29 30 36 30 33 32 31
9 7 9 10 12 15 8 9 19 23 30 33 38 36 31 32 32 29 26 22 25 30 33 36 42 44 37 38 40 40 45 46 41 38 37 38 33 28 37 31 32 33 30 33
6 6 8 6 9 14 15 22 31 30 34 34 30 32 29 26 27 21 23 26 28 32 36 39 40 38 40 41 47 45 42 39 34 28 20 26 28 24 28 31 29 28 30 35
11 7 9 16 19 24 34 30 31 33 37 28 30 26 24 26 21 24 27 32 38 35 41 37 33 34 35 49 48 44 39 35 30 28 27 23 20 26 28 28 27 28 31 36
20 26 21 19 28 31 36 32 31 32 28 27 21 22 24 22 26 33 39 44 41 42 34 31 32 36 46 45 42 40 37 32 27 22 18 19 20 23 26 26 26 27 31 35
22 24 22 23 29 30 30 38 36 20 21 20 21 20 23 31 36 42 43 40 41 31 34 39 38 41 42 41 39 37 32 27 19 18 19 18 19 22 23 23 25 27 30 33
29 22 27 30 33 35 37 35 28 21 21 20 21 26 33 40 41 39 41 39 36 36 41 41 42 42 40 39 36 33 28 20 19 18 16 17 18 20 22 23 24 26 28 29
24 32 31 28 32 28 30 23 21 21 19 22 26 35 39 39 40 40 38 37 38 41 42 43 42 40 37 36 34 28 23 20 18 16 16 17 19 21 22 23 24 25 27 28
34 30 29 27 28 18 19 17 18 19 22 29 36 38 38 40 39 38 38 39 39 41 41 39 38 35 35 33 29 25 20 20 17 16 16 17 19 20 22 22 23 26 28 28
24 23 26 22 22 17 14 16 20 24 30 36 37 38 38 38 37 38 38 39 41 40 39 37 35 33 32 30 25 22 20 18 18 17 17 17 18 19 20 21 23 25 26 28
23 23 23 22 15 14 18 21 25 30 34 35 37 38 37 35 36 37 36 39 39 39 37 35 33 32 30 25 22 21 21 18 18 17 16 17 18 19 19 21 23 25 27 26
21 22 21 17 15 18 21 25 29 33 34 35 37 36 34 33 34 33 36 37 37 38 34 31 31 29 27 22 21 20 19 19 18 17 16 17 17 18 19 21 23 24 26 26
23 22 17 16 18 21 25 30 33 34 34 36 36 33 30 31 32 32 35 37 37 36 30 29 28 26 24 21 20 20 19 18 18 17 16 16 17 18 18 20 22 24 25 26
18 17 16 18 21 26 31 33 33 34 34 36 33 31 29 29 31 33 35 36 38 35 31 28 26 25 22 20 19 20 19 18 17 17 16 16 16 16 17 18 20 22 24 25
15 15 17 22 27 31 33 32 34 34 34 33 32 31 30 30 32 35 35 35 37 35 32 28 25 22 19 18 19 20 20 19 18 17 17 16 15 15 16 17 19 21 23 24
16 19 22 28 32 33 32 33 34 34 33 32 32 32 32 33 35 37 34 34 34 34 30 27 24 20 18 19 18 18 19 20 19 18 17 15 14 15 16 17 19 21 22 22
20 25 30 33 33 32 32 33 34 33 31 32 32 32 33 34 35 34 32 32 33 32 28 26 22 18 18 18 19 20 21 21 19 17 16 15 14 15 16 17 19 20 21 21
27 32 33 32 31 32 33 33 33 31 30 29 31 33 34 34 34 33 34 30 30 29 27 25 23 21 20 19 20 20 21 21 19 17 16 15 15 16 16 17 18 19 20 20
32 29 30 31 32 33 33 32 32 31 31 32 34 33 34 35 34 31 31 31 30 28 26 25 25 24 25 24 22 22 22 21 19 18 17 17 17 17 17 17 18 19 20 20
28 29 29 31 32 32 32 31 30 29 32 35 36 36 36 37 34 32 31 30 29 28 26 25 25 25 25 25 25 25 25 23 21 20 19 19 19 19 19 19 19 19 20 20
27 28 29 29 29 29 27 27 28 31 35 38 38 38 36 36 32 31 30 30 29 29 28 25 24 25 25 24 25 26 26 25 23 22 21 21 21 21 21 21 21 22 22 22
27 28 28 29 28 29 32 34 35 35 38 38 39 36 34 33 31 31 30 29 29 29 28 26 26 27 27 26 25 25 25 25 24 24 24 23 23 23 23 23 24 24 25 24

GFSNGP_700_spd_021.txt.gz
Wind_Speed
8 6 8 9 11 13 15 15 16 19 10 6 12 15 13 15 17 20 25 34 39 39 38 40 40 38 36 36 37 38 40 41 46 50 49 46 50 48 60 36 36 44 43 42
4 6 7 14 8 4 1 3 7 6 9 14 16 17 21 22 24 26 39 39 35 37 38 38 37 37 36 35 37 37 38 44 50 48 42 45 48 44 38 39 45 39 37 41
3 6 11 4 5 7 9 12 14 13 15 20 25 29 27 24 27 35 41 37 36 35 37 36 32 31 37 40 40 42 46 51 52 43 47 49 51 44 42 27 44 42 34 40
4 6 1 5 9 15 10 12 11 10 15 20 23 27 27 28 34 37 35 32 32 32 27 26 30 37 43 45 49 51 54 48 44 44 44 47 49 40 38 36 45 35 36 32
4 4 11 9 6 11 12 12 14 18 23 24 22 22 30 37 35 29 29 30 27 23 25 32 39 44 46 50 52 51 45 47 46 46 43 41 39 36 37 34 28 33 30 29
8 4 6 7 6 11 15 16 18 17 19 20 27 31 33 30 29 31 29 30 31 32 36 39 42 45 47 47 45 46 45 48 48 44 41 35 30 23 26 34 33 29 27 27
15 9 8 10 15 14 11 15 17 19 26 29 35 33 34 35 31 29 29 29 32 37 40 42 41 41 41 42 45 45 46 46 43 39 33 28 23 28 27 28 27 26 26 27
10 7 10 8 11 17 20 26 27 29 31 33 31 33 29 27 26 28 29 32 37 40 41 40 41 41 42 44 44 44 43 42 40 35 29 25 22 21 24 25 24 24 25 26
13 9 16 20 21 27 30 30 30 29 29 33 37 28 25 24 26 28 31 37 39 41 42 41 41 41 42 43 41 40 39 37 35 30 23 17 18 19 21 22 23 24 25 27
19 20 18 20 28 31 32 32 32 29 32 35 26 22 22 24 27 31 35 37 40 41 40 40 40 39 39 42 40 35 34 33 30 24 19 17 17 20 20 21 22 23 24 27
31 26 22 26 30 31 33 32 32 33 35 31 21 21 24 26 32 34 36 38 39 38 39 39 37 38 39 38 35 31 30 29 25 21 19 16 17 18 20 20 21 22 24 26
35 34 32 32 30 30 30 33 36 35 28 19 21 23 26 31 32 35 38 39 38 37 38 38 37 39 39 37 35 31 29 24 22 20 18 16 16 17 19 19 19 20 22 24
28 30 29 29 29 31 32 32 31 18 20 21 22 25 30 32 34 37 37 36 36 36 38 38 37 37 37 35 34 30 27 23 20 19 17 17 16 16 16 17 19 20 22 24
29 30 30 30 33 31 25 21 18 19 20 21 25 30 32 34 35 36 34 34 34 36 37 37 39 39 34 33 31 28 24 21 21 19 17 17 17 17 17 18 18 21 23 25
29 28 27 27 25 25 21 21 19 18 20 25 30 32 33 35 35 33 31 32 33 35 37 37 38 33 31 30 28 24 21 19 19 18 17 17 16 17 17 17 19 21 23 24
23 23 23 24 22 20 19 18 17 20 25 31 32 32 34 35 34 31 29 30 32 34 37 38 34 31 30 28 25 21 20 19 19 18 18 17 17 16 16 17 18 20 21 23
23 24 22 21 18 16 16 18 21 26 30 32 32 33 35 35 33 30 28 29 32 35 36 37 33 30 27 26 23 20 18 18 19 18 18 17 17 16 16 16 16 18 20 22
23 20 18 18 15 15 18 21 26 30 32 33 34 34 35 33 33 31 31 32 33 36 35 35 33 29 26 24 20 18 18 18 19 19 18 17 16 16 15 15 15 17 19 21
20 18 17 15 15 17 21 27 31 33 33 34 34 34 34 32 33 33 34 35 35 36 33 32 31 28 25 22 18 18 18 18 19 18 18 18 16 16 14 14 15 17 19 20
12 13 14 16 18 22 28 32 34 32 32 34 34 33 32 32 32 33 34 35 34 34 32 31 29 25 23 20 17 18 18 19 20 20 19 17 17 15 14 14 15 16 17 19
12 14 16 19 22 28 33 32 31 32 32 33 32 30 31 32 33 35 35 34 33 32 30 28 27 24 22 19 18 17 17 19 20 21 19 17 16 15 14 15 15 16 17 18
17 20 23 26 30 32 30 30 31 32 31 30 29 28 29 31 32 33 34 34 32 30 28 27 26 24 22 21 21 22 21 20 20 20 20 18 17 16 16 16 16 16 17 17
21 24 28 31 30 29 28 28 30 32 31 28 27 27 30 33 34 35 34 33 31 29 29 27 26 24 23 22 22 24 24 22 22 22 20 19 18 18 17 17 17 17 17 17
27 29 27 26 27 27 28 29 31 29 28 27 29 30 34 35 36 35 34 32 30 30 29 27 26 25 24 24 23 22 23 24 24 25 24 22 20 20 20 20 19 19 19 19
24 25 26 27 27 28 29 29 29 29 31 32 32 33 34 35 36 34 34 32 30 30 29 27 26 25 25 24 24 24 24 24 25 25 25 24 22 22 22 22 22 22 21 21
25 26 27 28 30 30 29 30 32 32 33 33 33 34 34 33 33 33 32 30 30 29 27 27 26 26 26 26 26 26 26 26 26 26 26 24 23 24 24 24 24 24 24 25
26 28 30 31 30 31 33 35 36 38 35 33 35 34 33 32 33 33 30 30 29 27 27 27 27 27 27 28 28 28 28 28 28 28 28 25 24 24 24 25 25 25 26 27

GFSNGP_700_spd_024.txt.gz
Wind_Speed
10 10 10 12 11 11 14 16 12 18 17 17 18 18 19 20 21 23 24 25 30 37 39 38 37 39 42 40 42 43 45 45 43 47 52 55 42 45 49 50 46 41 41 32
12 13 12 11 12 10 7 8 10 10 11 15 18 18 18 20 22 24 28 32 36 39 37 37 41 41 40 41 41 43 44 45 50 54 50 43 42 45 47 47 45 42 23 33
7 12 11 13 13 11 9 11 16 21 24 24 22 20 20 22 26 26 32 37 38 36 39 39 38 38 39 39 43 47 49 51 51 42 44 44 44 41 38 36 33 23 27 25
5 7 1 8 10 9 11 12 17 18 19 19 20 23 26 29 29 32 37 37 36 35 36 34 36 37 39 43 46 48 48 42 41 42 43 41 41 36 31 24 20 26 23 23
5 8 10 10 16 12 9 13 19 20 22 23 25 27 26 28 34 36 34 32 33 32 32 34 36 39 42 45 46 42 40 39 40 42 41 39 38 33 28 22 29 20 24 27
10 5 6 8 13 13 12 20 9 11 17 20 21 26 31 37 35 34 30 31 31 30 34 36 37 40 43 41 40 40 40 41 42 41 39 38 34 30 28 27 21 23 25 27
19 11 10 15 16 15 10 12 16 19 17 20 26 30 30 32 35 32 29 30 30 33 34 36 40 41 40 38 38 39 42 42 40 38 37 33 29 23 18 18 21 23 25 26
14 10 12 15 17 18 19 25 24 24 22 25 30 29 32 33 28 27 27 28 32 34 36 38 39 39 38 38 39 39 37 37 35 34 33 28 22 19 18 19 21 23 24 25
16 10 15 21 25 25 26 26 28 25 26 28 30 33 31 29 27 25 26 30 32 35 37 37 38 38 40 39 38 36 35 35 34 32 27 23 21 19 18 18 21 22 23 23
24 26 26 25 27 25 26 28 28 28 30 32 30 31 31 23 22 25 28 30 32 35 36 36 36 38 38 37 37 35 33 33 32 28 24 21 21 19 18 19 21 21 21 22
30 31 31 29 27 26 30 31 29 32 33 32 37 31 21 20 24 27 29 31 34 35 35 34 36 37 35 36 37 35 32 32 29 26 23 22 20 18 18 18 19 19 20 22
35 30 33 35 34 31 28 28 30 32 38 35 26 19 20 23 28 29 31 33 34 33 33 33 35 37 36 36 35 32 31 30 27 23 22 21 20 19 19 19 19 19 20 22
30 29 29 29 28 27 27 30 35 33 29 23 19 20 23 27 29 30 32 34 34 32 32 33 34 36 37 35 32 32 31 28 24 22 20 20 19 18 16 18 19 18 19 22
30 29 29 29 29 28 32 33 31 29 23 17 19 23 27 30 31 32 34 34 33 31 31 32 34 36 38 35 32 31 29 25 21 20 20 20 19 18 17 16 16 16 18 20
27 25 24 28 30 32 30 28 26 21 17 20 23 27 31 32 33 33 34 33 32 31 31 33 35 35 36 35 31 28 27 23 21 20 20 19 18 18 17 16 17 16 16 19
26 24 24 26 31 23 25 20 17 16 19 23 27 31 32 33 33 34 34 33 33 33 33 35 36 35 34 34 30 27 25 22 20 20 20 19 19 18 17 16 17 16 16 18
23 25 27 26 27 18 16 18 19 18 22 28 32 33 32 33 33 34 34 33 33 34 34 36 35 34 33 32 29 26 22 20 20 20 20 19 19 18 17 16 16 15 15 16
20 26 23 23 16 18 19 19 17 21 27 32 33 33 33 34 35 34 34 33 33 34 34 34 33 32 31 30 27 23 20 19 20 20 20 21 20 18 17 17 16 14 14 16
22 19 14 18 20 17 16 16 22 27 31 33 33 33 33 34 34 34 33 32 33 33 33 34 33 30 29 28 25 21 19 19 20 20 21 21 20 18 17 16 15 15 15 15
12 12 13 16 16 17 21 24 28 31 32 31 31 32 33 33 33 33 32 32 33 35 35 34 32 29 28 26 24 20 19 19 19 21 21 21 20 18 18 17 16 16 16 16
12 14 12 17 21 23 25 29 32 29 28 28 30 31 31 30 30 30 32 34 33 34 33 31 29 29 26 25 24 21 20 21 21 21 21 21 20 19 18 18 17 17 17 17
11 16 19 22 25 28 30 28 27 26 26 27 28 28 30 30 30 31 31 34 34 32 31 28 28 27 26 25 24 23 22 21 21 22 22 21 21 20 19 19 19 19 18 18
19 20 23 27 29 27 25 26 26 27 29 28 28 28 30 32 32 34 35 33 33 32 31 29 29 28 27 26 24 23 23 23 22 22 24 24 25 24 22 21 21 21 21 20
23 28 28 26 26 26 27 26 29 30 31 31 32 32 33 34 34 33 35 33 33 33 32 31 29 27 26 26 25 24 23 23 23 23 24 26 25 25 25 24 23 22 23 23
25 25 25 25 26 27 29 31 33 34 34 34 34 36 35 36 37 36 34 33 33 34 32 30 28 27 26 26 26 26 26 25 26 26 27 26 27 27 26 25 24 24 23 24
23 24 25 27 29 30 32 35 37 37 39 39 37 35 34 34 35 36 34 33 34 34 31 28 27 26 26 27 28 28 28 28 27 29 30 29 28 28 29 25 25 24 25 26
25 27 29 31 31 32 36 39 42 43 41 41 42 37 37 38 36 36 35 33 32 29 28 27 26 26 28 29 31 32 32 31 28 27 28 29 28 27 27 27 27 27 28 28

GFSNGP_700_spd_027.txt.gz
Wind_Speed
11 10 10 11 13 15 17 17 15 17 19 17 22 25 25 24 22 23 25 26 28 31 36 38 38 37 37 39 42 43 43 44 46 49 51 51 49 48 43 41 39 35 30 20
13 14 15 17 18 19 20 22 21 21 22 16 18 19 23 23 24 26 27 29 34 34 37 38 39 37 38 41 42 42 43 45 47 48 46 46 45 42 39 37 33 26 17 22
8 14 15 16 22 24 19 17 16 19 17 19 22 23 24 25 25 26 29 31 34 40 39 38 36 37 39 41 41 43 46 47 46 46 45 45 42 39 37 33 27 22 25 26
6 7 1 16 16 15 18 19 19 19 19 18 17 19 23 25 26 28 31 36 41 39 36 34 35 38 39 40 43 45 47 46 47 46 45 42 38 37 35 31 27 26 24 24
6 12 14 14 15 18 18 20 17 18 17 17 20 22 24 24 27 31 37 35 35 35 31 33 35 37 39 42 43 44 44 45 44 44 41 38 35 35 34 29 24 21 21 24
10 5 6 9 11 16 21 23 18 9 15 17 20 24 22 26 31 35 33 35 32 29 31 34 36 38 40 42 42 42 42 41 41 41 38 36 34 33 29 24 21 21 23 25
23 14 11 19 18 16 15 16 11 19 19 20 21 22 26 31 34 35 34 30 28 29 33 35 37 39 40 39 40 39 37 38 38 38 36 35 33 30 25 23 21 22 23 24
14 12 14 19 19 20 17 16 25 24 23 21 19 24 31 31 37 34 25 25 27 31 33 36 38 39 38 38 38 37 36 37 38 37 36 34 30 26 24 22 22 22 23 24
16 12 17 18 17 21 24 26 28 26 25 25 24 28 32 34 32 21 21 24 30 32 34 36 37 38 37 37 38 37 38 39 38 36 34 32 28 25 24 22 21 22 22 22
27 27 27 27 27 31 33 30 26 27 29 29 26 32 28 39 24 19 23 28 31 32 34 36 36 36 35 36 36 37 37 36 35 34 33 29 26 24 22 21 21 21 21 22
30 28 29 31 32 32 30 29 29 34 29 28 33 28 31 20 19 22 26 30 32 33 35 36 36 34 35 35 37 38 36 34 34 33 30 26 24 23 22 21 20 20 21 21
32 27 30 30 29 30 32 34 33 28 28 25 37 25 18 18 21 25 30 32 33 33 35 36 35 34 34 35 37 38 37 35 32 30 27 25 23 22 22 21 20 20 20 21
30 29 30 32 31 29 28 28 28 26 30 30 19 17 18 20 24 29 32 34 34 34 35 36 35 34 35 36 38 37 37 34 31 29 25 23 24 21 20 21 20 20 19 20
30 30 30 28 28 28 28 28 28 30 31 17 16 17 20 23 28 32 33 34 34 35 35 35 35 35 37 38 38 36 35 33 30 28 25 22 22 22 21 20 18 18 19 19
27 27 27 27 29 29 29 29 33 25 14 15 17 19 22 28 32 33 33 33 34 35 34 35 35 36 37 37 36 34 34 31 29 26 25 23 23 22 21 20 19 17 18 18
31 30 29 29 27 31 30 31 17 13 16 20 17 20 26 31 32 32 33 34 35 35 34 35 35 35 35 34 34 32 31 30 27 24 23 23 22 21 21 20 19 18 17 16
29 28 26 24 28 35 22 13 15 20 20 15 20 26 30 32 31 31 33 34 34 35 35 34 34 34 34 34 32 31 30 28 25 22 22 22 22 22 21 20 19 19 18 17
25 22 21 24 25 23 17 19 18 16 17 22 27 30 31 31 31 32 34 34 34 33 33 34 35 35 33 32 30 29 28 26 24 22 23 23 22 23 23 21 20 19 18 17
20 21 24 22 12 16 15 11 17 20 24 28 30 30 30 29 32 33 33 33 32 33 33 35 35 34 32 29 29 28 26 25 24 23 23 22 23 24 23 21 20 20 18 18
12 10 9 9 9 12 18 20 21 26 30 32 30 29 28 31 32 33 33 33 32 35 36 36 35 33 31 30 29 27 26 24 24 24 25 25 23 23 23 22 20 19 19 19
11 12 11 13 17 19 22 26 29 32 31 29 29 29 32 32 31 34 35 34 32 35 35 36 34 33 31 31 30 28 26 25 24 25 25 25 25 24 23 22 22 21 21 21
12 15 18 20 23 25 29 32 30 28 29 29 30 32 33 33 34 35 35 35 35 35 35 34 33 33 32 31 30 29 27 26 25 25 25 26 26 25 25 25 24 24 23 23
17 20 22 25 28 30 28 27 28 29 29 31 33 34 35 37 37 38 39 36 36 35 35 34 34 34 33 31 29 28 27 27 27 27 26 25 25 26 26 26 26 26 25 24
19 23 28 27 26 27 27 28 29 31 34 36 36 37 38 40 40 38 39 37 36 37 36 35 35 35 33 31 29 28 27 27 27 28 28 28 27 29 29 28 28 29 27 26
26 26 26 27 28 29 31 34 36 37 37 39 40 42 42 41 41 40 39 40 39 38 38 35 34 33 30 29 29 29 29 30 30 31 31 30 30 32 32 31 31 30 30 27
25 26 27 28 31 33 36 38 41 43 46 48 49 47 45 41 42 44 43 40 39 37 35 33 32 30 29 28 28 29 32 33 33 33 32 31 30 29 29 31 29 29 29 29
25 28 31 33 36 39 43 45 47 48 47 46 47 46 43 42 41 38 36 36 35 33 31 31 29 28 27 27 29 31 31 32 31 31 30 29 28 26 27 28 26 27 27 27

GFSNGP_700_spd_030.txt.gz
Wind_Speed
15 11 10 13 15 16 18 18 16 21 22 15 16 17 20 22 25 27 27 26 27 28 30 35 35 35 34 36 37 39 42 44 46 49 49 49 49 48 45 41 37 35 30 26
16 16 14 17 18 20 22 25 26 25 25 18 15 15 18 18 20 24 26 27 27 29 34 35 33 34 35 36 38 40 43 46 48 48 48 49 48 46 41 38 35 32 29 26
7 14 17 19 25 26 28 29 27 26 18 18 18 18 18 19 20 23 26 26 28 32 36 34 34 34 34 36 39 42 45 46 46 47 47 47 45 42 40 35 34 32 29 25
6 7 2 18 20 17 20 25 28 25 22 19 19 18 18 19 21 24 25 27 30 34 35 35 32 32 35 38 40 43 44 44 45 46 44 42 41 39 37 33 31 29 25 22
6 10 18 18 20 21 22 20 21 23 22 19 17 19 21 21 22 25 27 29 35 35 33 30 31 32 36 38 41 42 43 44 44 43 41 40 39 37 35 32 29 26 24 23
11 6 6 12 13 15 18 27 26 23 17 14 19 23 19 18 22 25 29 35 38 35 28 30 31 34 36 39 41 42 42 42 41 40 41 40 38 36 34 30 27 26 24 24
19 15 10 20 21 20 13 19 12 12 14 25 26 24 21 21 24 27 35 33 30 29 28 29 33 35 38 40 41 40 39 39 39 40 39 37 36 35 32 29 26 25 23 22
10 9 11 14 16 16 15 15 19 21 27 29 27 26 27 23 25 31 34 27 26 24 27 31 35 38 39 40 39 38 38 38 39 39 38 36 36 35 30 26 25 23 22 22
13 11 16 21 26 25 21 22 27 30 29 28 27 26 26 26 31 31 27 21 22 24 29 33 36 38 38 39 38 38 37 38 39 39 37 36 35 33 28 26 24 22 21 21
25 25 24 25 27 27 28 30 30 29 29 29 28 27 27 32 31 28 17 19 22 27 32 34 36 37 38 38 38 38 38 38 39 38 37 34 33 29 26 25 24 22 21 21
29 28 28 26 26 26 28 29 28 29 29 30 32 28 31 31 32 18 18 19 25 30 33 35 36 37 38 38 38 38 39 39 38 38 36 33 30 28 25 24 23 21 20 20
30 24 26 26 27 28 29 30 32 32 31 28 25 31 30 36 19 16 16 24 29 32 35 35 36 37 38 39 38 38 38 38 37 36 34 32 28 27 25 23 22 20 19 19
30 29 30 29 29 29 28 28 27 26 25 27 31 30 26 15 14 14 21 28 33 34 33 34 36 36 37 38 37 37 37 36 34 34 33 30 26 24 24 23 23 21 20 20
27 28 28 26 28 28 27 27 25 22 27 30 32 22 13 13 13 19 26 31 31 31 33 34 35 35 35 35 35 35 35 34 33 32 31 28 24 22 23 23 21 20 21 20
28 28 29 30 30 29 28 27 26 26 32 29 18 17 14 12 18 25 29 29 29 30 33 34 35 34 32 33 35 35 35 33 31 30 29 26 23 22 22 22 22 20 19 19
31 31 30 29 27 26 26 28 28 36 30 17 19 15 13 19 24 29 28 26 29 31 33 34 33 32 32 34 35 33 32 30 29 28 27 24 23 23 22 23 22 21 20 20
27 28 26 25 23 23 25 33 33 22 15 17 14 18 22 25 29 28 26 28 31 33 34 35 34 34 35 36 35 32 31 30 29 27 26 23 22 22 22 22 23 23 21 20
24 23 23 20 22 24 24 21 13 9 12 17 23 23 25 27 27 26 28 30 32 35 35 36 35 35 36 36 35 32 30 29 28 27 25 24 23 23 23 23 23 23 21 21
17 17 16 15 12 12 9 8 13 19 23 25 24 25 26 27 27 29 32 34 34 36 36 35 36 37 36 35 35 33 31 30 28 27 26 25 24 24 25 24 23 23 22 20
6 3 2 4 7 10 15 19 23 24 26 28 29 28 29 28 29 32 35 37 36 35 38 38 38 38 37 36 35 33 31 30 28 27 26 26 26 26 26 25 25 24 23 22
13 15 18 21 21 22 23 24 27 30 31 30 30 30 30 31 34 35 37 39 38 37 39 38 38 37 37 35 34 33 32 30 28 27 26 26 26 27 27 27 27 27 25 24
11 15 18 19 20 22 26 29 31 29 29 30 31 32 34 35 37 39 39 40 41 40 41 39 38 37 37 36 35 33 31 29 28 27 26 26 27 28 28 28 27 27 27 27
17 18 19 21 24 26 26 27 29 29 29 31 33 35 38 41 43 46 47 46 45 42 41 39 39 39 38 36 35 32 29 27 27 27 27 27 28 29 29 30 30 30 30 29
16 20 22 23 24 25 26 27 29 32 34 37 39 41 44 47 48 47 45 44 42 41 42 43 41 40 38 35 33 30 28 27 27 28 29 31 32 32 32 31 31 32 32 31
20 22 23 25 27 29 31 33 36 39 41 43 45 45 45 45 46 46 43 41 40 41 39 34 36 35 33 32 30 28 27 27 28 31 31 31 31 31 30 30 29 29 30 30
23 24 26 29 32 35 38 42 44 45 47 48 48 48 46 43 42 41 39 37 36 34 30 29 34 33 31 29 28 25 25 27 28 28 28 30 31 30 30 28 27 26 28 27
25 27 29 33 37 41 43 45 46 47 47 48 50 48 48 45 42 40 37 35 31 29 28 28 29 29 29 27 27 24 24 26 26 27 28 30 31 31 29 26 22 26 26 25

GFSNGP_700_spd_033.txt.gz
Wind_Speed
17 14 12 13 14 19 22 22 19 23 23 18 17 17 14 15 19 22 24 25 26 26 27 28 30 35 34 32 33 33 34 37 39 42 44 45 45 45 44 44 41 37 33 31
16 18 17 18 18 19 22 24 28 29 30 21 17 15 15 14 16 18 22 26 27 27 26 30 32 34 33 32 32 33 35 38 41 42 43 44 44 43 43 42 39 35 32 30
8 13 16 17 26 26 27 28 29 31 27 23 19 19 17 17 16 16 19 24 26 25 29 29 33 30 31 31 32 34 36 39 41 42 42 43 43 43 42 40 36 34 31 28
6 6 2 15 18 17 19 19 22 25 28 25 23 21 19 15 17 18 21 24 24 26 29 31 33 33 30 31 33 35 37 39 41 42 42 42 41 41 39 38 35 33 29 26
4 8 15 16 16 21 23 23 21 23 19 19 21 20 15 17 19 18 20 21 24 30 29 32 33 29 29 30 34 36 38 40 41 42 41 40 39 38 37 36 34 31 27 25
9 5 5 5 12 17 20 23 19 14 16 17 15 16 20 22 18 18 20 22 26 29 31 30 28 27 28 32 35 37 39 40 41 41 40 39 38 38 36 35 32 28 26 25
17 11 9 11 15 16 9 11 11 12 10 13 19 27 28 23 21 20 20 25 28 31 26 25 23 25 29 33 36 38 39 40 39 39 39 38 38 37 35 34 30 26 25 24
8 7 7 4 6 8 14 21 19 17 21 25 26 26 24 23 22 22 25 29 34 25 22 19 22 27 32 35 37 37 39 39 38 37 38 38 37 36 33 32 27 25 24 23
11 9 14 20 22 19 20 21 20 23 26 27 26 27 25 22 25 27 30 35 26 21 15 18 25 30 36 36 37 38 38 38 37 37 37 36 35 34 32 29 26 25 24 22
21 20 20 23 23 23 22 21 21 25 26 27 29 29 29 32 30 30 32 28 20 12 15 23 28 34 35 35 37 37 37 37 37 36 36 34 33 32 30 27 24 24 23 22
25 22 22 21 23 24 24 24 25 24 25 27 27 27 30 32 37 30 35 19 10 13 19 25 30 32 33 35 36 35 36 35 34 34 34 32 32 30 28 25 23 23 22 21
22 22 26 26 26 27 27 26 28 28 28 27 25 24 28 35 31 36 17 7 11 16 22 27 29 30 32 34 34 35 33 32 33 33 33 32 30 28 25 23 22 22 21 20
26 27 26 26 25 26 26 26 27 27 26 25 27 27 31 36 28 16 11 9 14 20 24 26 27 29 31 32 33 31 32 33 33 33 32 30 28 26 23 21 23 22 22 20
25 25 24 25 26 27 27 27 26 27 23 24 28 31 33 18 14 7 8 14 19 21 24 25 26 28 30 31 32 32 33 33 33 31 29 28 26 25 22 21 21 20 22 22
26 28 29 29 28 27 26 25 22 22 26 26 34 26 18 12 10 13 18 19 20 21 23 25 27 29 30 31 31 32 33 33 32 29 29 27 25 23 21 21 20 21 20 21
28 26 25 24 24 22 19 20 23 25 24 23 16 11 9 12 19 21 21 22 20 21 24 27 28 30 31 33 33 32 33 33 31 30 29 27 25 23 22 21 21 21 20 21
23 21 22 24 21 19 19 20 16 15 15 12 10 14 20 23 23 23 22 21 21 24 27 29 30 32 33 35 35 34 35 34 33 30 29 27 25 24 22 22 22 21 21 21
25 24 20 18 16 17 15 13 11 8 10 17 21 23 23 23 22 22 22 23 25 26 27 32 33 34 35 36 37 36 35 34 33 31 29 27 25 23 23 23 22 22 21 20
17 15 12 9 7 6 8 12 19 23 25 25 23 22 21 21 23 23 24 26 29 31 30 34 37 37 36 37 38 37 36 35 33 31 29 27 26 24 23 23 23 23 23 22
6 6 9 12 16 18 19 21 21 21 21 21 21 22 23 24 26 28 31 32 33 35 38 40 41 41 39 39 39 37 36 35 33 31 29 26 25 24 24 24 24 24 24 24
7 9 13 16 16 17 19 21 23 22 23 24 25 26 28 29 31 34 36 38 39 42 44 43 43 42 40 38 38 38 38 35 32 30 27 25 24 23 23 24 25 27 27 27
9 12 14 14 16 19 21 22 23 25 26 28 29 32 34 36 39 41 43 45 46 46 45 43 42 39 37 38 40 39 36 33 30 28 25 24 24 24 24 25 26 27 27 28
11 12 15 17 19 20 21 23 25 27 30 32 35 38 41 43 45 47 48 46 47 45 44 42 39 38 38 33 33 34 32 29 28 25 23 23 24 26 27 27 27 28 28 28
14 17 18 19 21 22 24 26 28 31 34 38 41 43 44 46 46 46 47 46 44 43 41 39 37 34 28 32 34 34 29 27 26 23 22 23 25 25 24 25 26 26 26 26
17 19 20 22 24 26 29 32 36 39 42 43 45 46 46 47 48 47 46 45 43 40 37 34 33 29 26 31 33 30 27 25 26 23 22 23 23 23 24 24 25 26 26 25
19 21 23 26 29 33 37 41 44 46 48 48 48 49 49 49 49 48 45 42 38 35 32 31 26 25 26 26 29 29 27 25 25 22 22 22 22 23 24 26 27 27 26 26
22 24 26 30 35 40 44 46 48 47 48 49 51 50 49 47 45 42 40 36 31 29 28 26 25 26 27 26 30 29 27 26 26 23 22 23 24 24 26 27 27 26 25 23

GFSNGP_700_spd_036.txt.gz
Wind_Speed
21 17 15 15 13 17 22 21 14 18 17 15 15 19 18 18 17 20 23 25 28 31 32 33 34 35 34 33 32 31 30 30 32 35 37 40 41 41 41 40 41 41 40 37
18 20 20 20 20 19 19 20 25 24 27 21 22 17 18 17 17 18 21 24 26 30 31 33 33 35 33 31 32 31 30 30 33 36 38 39 39 40 40 40 40 39 38 36
8 14 15 16 24 26 26 27 27 23 22 22 25 21 19 19 18 17 18 20 24 28 30 31 34 34 31 32 28 28 28 31 34 36 38 38 39 39 40 39 39 38 36 34
6 4 3 12 14 14 17 17 20 21 23 26 26 21 19 18 17 15 18 21 24 26 28 31 34 33 33 30 26 26 29 32 35 37 38 38 39 39 39 38 37 36 34 32
5 7 12 16 16 16 15 15 18 20 21 21 17 15 18 17 17 20 21 21 23 25 28 32 35 32 33 26 23 27 30 34 36 37 38 39 39 39 37 36 36 34 32 29
7 4 4 5 9 12 15 11 5 7 10 11 12 15 11 19 24 23 21 20 22 25 30 34 35 36 28 18 23 27 33 35 35 37 39 39 39 37 36 35 35 33 30 27
15 9 7 12 13 11 3 4 14 20 16 13 13 17 24 27 24 22 22 19 19 26 33 38 39 28 16 19 24 30 34 33 35 38 39 38 37 36 35 34 33 31 29 26
7 6 5 1 4 6 11 19 18 17 16 19 21 26 26 25 26 24 24 25 26 28 35 40 27 17 16 22 27 31 32 34 37 38 38 37 35 34 33 32 31 30 27 25
7 4 11 16 13 16 21 23 22 20 20 24 25 27 27 27 29 29 29 35 36 33 34 37 22 14 20 23 28 29 31 34 37 38 36 33 32 32 31 31 30 28 26 24
14 13 13 19 19 21 22 23 22 23 25 27 30 33 32 31 30 32 34 36 34 38 29 25 15 18 20 25 27 29 31 34 36 34 33 32 33 32 31 30 29 26 24 22
18 16 17 19 21 24 24 25 27 28 27 28 29 31 32 32 31 31 35 39 35 28 13 12 16 17 21 24 26 28 31 33 33 32 32 31 31 30 29 28 27 24 22 22
19 19 22 23 25 26 25 25 25 26 27 27 27 27 28 29 30 32 38 35 27 13 11 12 16 19 22 24 26 29 31 31 32 31 31 31 30 29 29 26 25 22 21 22
21 23 25 25 24 24 25 26 28 28 28 28 26 27 27 29 30 30 31 22 11 11 11 14 18 21 22 25 28 29 30 31 31 30 31 31 30 29 28 26 24 21 22 21
24 22 22 22 26 28 28 27 26 24 23 23 23 28 29 31 29 23 13 10 13 15 15 17 20 22 24 26 28 30 31 31 31 31 31 31 30 29 27 26 24 22 21 21
23 23 26 26 25 24 23 22 21 17 22 24 25 21 18 15 13 11 16 19 19 17 18 20 23 24 26 28 30 31 31 31 31 31 31 30 30 29 27 26 25 23 21 21
23 21 20 21 21 22 23 17 17 19 20 15 13 12 11 13 19 23 24 20 18 19 21 23 25 27 29 30 32 34 35 34 33 33 32 32 31 30 28 27 25 23 22 21
16 18 20 21 19 17 16 16 14 11 10 11 14 19 23 25 23 20 19 21 22 22 24 26 28 31 31 33 35 37 38 37 36 35 33 32 32 31 29 27 26 24 23 22
13 12 12 12 11 10 8 8 8 12 16 20 19 19 18 17 18 19 21 23 23 24 26 29 32 35 37 37 39 39 40 39 38 36 35 34 32 32 30 27 26 25 24 23
7 8 8 6 6 7 9 11 11 12 13 14 15 16 18 20 22 23 25 26 28 31 33 35 37 39 41 42 42 41 41 40 39 37 35 34 33 31 29 27 26 25 24 24
7 7 6 6 7 8 9 11 12 12 14 16 18 20 22 24 28 31 33 35 36 37 41 43 44 44 43 43 42 41 39 38 38 39 38 34 32 30 28 25 24 24 24 25
5 6 8 10 10 12 13 14 16 18 20 22 24 27 30 32 34 37 40 43 43 46 47 47 47 45 44 43 40 39 36 37 37 35 32 30 29 29 25 24 23 24 24 25
9 11 12 13 14 15 16 18 19 22 25 27 30 33 36 38 41 43 45 47 48 48 48 48 46 43 42 40 39 35 31 30 33 34 30 28 29 27 23 23 24 26 26 26
11 12 13 15 16 17 19 20 23 25 29 32 36 39 42 44 46 48 49 48 50 49 49 49 46 43 39 36 33 31 29 32 33 33 29 27 27 25 22 23 25 24 24 23
13 15 16 17 18 20 22 23 26 30 34 39 42 44 45 46 46 47 49 50 49 48 46 44 42 37 33 32 29 26 28 31 31 30 27 26 27 24 22 23 22 21 21 21
17 18 19 20 22 24 26 30 34 39 42 44 45 46 48 49 50 48 46 45 43 42 40 37 33 29 26 24 24 25 29 30 31 30 27 27 27 23 22 23 22 22 21 21
19 20 22 23 25 29 33 38 42 45 47 48 49 50 49 46 45 44 44 42 40 38 36 33 30 27 27 28 28 28 28 28 29 28 27 27 27 24 22 22 22 21 21 22
21 23 25 27 31 35 40 44 46 47 48 50 51 47 45 44 43 43 41 40 38 36 33 30 27 25 26 28 29 28 28 26 27 27 26 27 27 25 22 22 21 22 24 23

GFSNGP_700_spd_042.txt.gz
Wind_Speed
18 18 13 12 12 10 14 17 20 21 18 16 15 11 8 9 12 14 15 20 20 27 29 34 40 36 37 39 40 37 36 36 41 42 44 32 29 28 29 32 35 37 39 43
13 11 15 16 18 20 21 20 20 20 22 18 17 16 20 15 17 15 17 21 28 29 34 38 34 34 38 41 41 38 35 39 43 44 34 28 26 27 30 32 36 38 39 40
8 9 10 13 20 18 21 19 19 21 18 16 18 18 14 13 12 15 20 20 22 28 27 27 30 36 38 40 43 38 38 43 45 39 34 24 27 31 28 33 36 38 38 39
6 5 1 12 7 11 12 11 9 11 10 8 14 13 17 21 17 14 15 18 19 23 23 25 30 36 39 41 41 41 41 43 45 34 29 28 26 25 30 35 38 37 36 37
7 11 11 16 7 6 6 1 3 3 6 6 15 14 14 10 13 14 17 18 20 23 24 27 31 36 37 40 40 42 44 39 33 28 32 23 22 26 32 36 37 36 34 32
9 4 4 3 8 7 6 5 4 9 6 8 15 13 11 14 17 20 25 27 26 22 23 26 30 33 35 37 42 44 42 33 28 22 17 20 24 28 32 35 35 35 34 31
12 6 6 8 11 13 5 4 10 9 15 23 13 15 18 22 22 28 28 20 22 20 26 31 34 37 40 44 45 48 46 28 18 17 18 22 25 30 33 32 33 33 33 31
12 6 7 11 7 4 11 10 14 21 21 20 20 18 23 26 26 29 24 24 27 33 35 37 39 42 45 46 42 40 37 26 19 18 21 25 29 31 33 34 32 32 33 31
7 2 8 8 10 8 14 18 19 20 21 22 24 22 20 18 27 29 29 31 34 37 37 36 39 41 43 39 37 28 24 23 19 21 24 28 30 32 33 34 33 30 32 32
11 6 6 7 9 13 20 18 17 21 24 24 24 22 21 22 28 32 35 36 34 33 30 31 38 40 35 34 30 25 25 28 24 24 28 29 31 32 34 34 35 34 33 33
10 12 11 12 20 21 20 23 24 23 26 23 23 25 28 31 33 32 29 29 30 33 34 34 29 23 21 22 27 27 21 21 25 27 29 31 32 34 35 35 36 36 32 32
13 19 18 25 25 23 25 27 24 23 26 26 26 27 26 26 27 27 28 27 30 25 19 18 21 25 22 19 19 22 24 27 29 31 33 33 34 35 34 36 36 35 31 28
22 22 25 25 27 26 25 23 24 27 26 24 23 23 22 21 21 20 22 18 17 18 22 21 17 19 21 24 25 27 29 31 33 35 36 36 37 38 38 36 35 34 31 28
21 22 25 27 28 24 24 25 26 24 25 25 23 18 18 16 14 14 13 15 18 17 16 19 20 22 25 28 28 29 32 34 36 38 39 41 41 40 38 37 36 33 31 30
23 25 27 24 23 24 25 23 22 22 19 17 15 14 13 13 13 13 13 12 14 17 20 22 24 25 28 30 33 36 37 39 40 42 44 42 40 39 39 37 36 34 32 30
24 23 23 23 22 21 20 19 16 14 14 13 12 12 12 12 11 12 15 16 18 21 23 26 29 32 34 36 38 40 41 42 42 41 42 44 43 44 40 37 41 35 32 30
23 22 22 20 17 17 15 12 12 12 11 11 12 12 12 12 14 16 18 20 23 25 28 32 35 38 40 40 42 44 45 42 42 44 44 43 42 41 37 36 39 38 35 31
21 17 15 14 12 10 11 11 11 12 12 13 12 13 14 16 18 20 23 25 28 31 35 39 43 45 47 48 49 49 49 48 46 40 39 41 40 38 35 34 33 34 29 30
15 13 11 9 9 10 10 11 11 12 13 14 15 16 18 21 23 26 29 32 36 40 44 47 48 49 50 51 52 53 51 49 48 41 39 38 38 32 33 27 31 31 27 28
11 10 10 10 10 9 10 12 13 14 15 16 17 19 21 25 28 31 35 40 44 47 49 50 51 53 54 53 51 50 46 44 42 39 31 37 36 28 31 31 32 30 27 26
11 10 10 10 10 11 13 15 16 16 17 19 22 24 27 30 34 38 42 46 49 50 51 51 53 54 50 50 49 47 44 40 35 30 26 26 29 33 32 32 30 30 29 25
11 11 11 11 13 14 15 16 17 19 21 24 26 28 32 36 39 43 47 49 50 51 50 51 52 49 47 45 43 41 38 30 26 25 23 26 31 32 34 29 29 30 29 29
12 12 13 14 16 17 18 20 22 22 25 28 30 33 37 41 45 48 50 50 50 50 49 49 46 44 44 43 41 39 35 31 29 27 26 29 31 34 31 30 30 30 27 26
13 14 16 17 18 20 21 21 24 28 29 31 35 39 43 46 47 48 48 47 48 47 45 45 44 43 44 43 41 38 34 32 29 32 33 33 31 31 30 29 27 26 25 25
16 17 17 19 21 21 22 24 27 30 32 35 39 43 46 47 47 47 47 46 45 43 43 43 44 43 42 40 38 34 31 29 27 27 29 28 28 27 27 27 25 24 23 23
17 18 19 21 22 23 25 28 29 32 36 40 42 45 47 47 46 44 44 42 41 41 41 41 40 39 37 36 34 32 29 27 25 25 25 25 26 26 25 25 24 23 23 22
19 20 22 23 23 26 27 30 33 38 41 43 44 46 46 44 43 41 40 40 40 39 38 37 36 36 35 33 32 30 29 27 27 26 25 24 23 23 23 23 23 23 23 23

GFSNGP_700_spd_045.txt.gz
Wind_Speed
13 11 17 8 11 8 12 16 19 16 16 13 12 9 14 6 7 7 10 14 17 22 25 29 30 32 33 35 38 41 40 38 40 42 43 45 48 35 32 24 29 29 28 30
14 15 16 15 13 19 22 17 17 15 14 10 7 6 7 7 10 10 7 12 16 21 25 28 29 34 34 36 39 39 37 40 43 43 44 43 38 32 23 29 27 26 29 33
13 15 17 17 23 22 18 17 17 16 10 15 15 10 6 8 12 15 18 18 21 20 23 28 34 34 34 31 35 39 42 44 47 45 51 43 41 31 29 24 25 25 28 33
9 11 0 17 8 9 6 5 5 7 8 9 6 9 11 14 16 17 17 15 17 19 24 26 30 31 33 35 38 41 44 48 46 48 48 46 43 26 23 22 23 27 33 35
8 14 11 13 10 11 9 5 7 11 12 9 8 10 12 17 19 12 14 17 16 19 24 23 26 28 32 34 38 42 45 49 51 51 48 41 31 26 21 20 25 30 33 33
12 5 6 6 9 10 9 8 9 12 14 15 12 15 18 15 17 19 20 23 28 29 28 27 27 30 32 35 39 44 49 51 55 54 33 34 28 21 23 24 28 31 32 32
18 10 7 10 11 11 9 7 13 12 12 11 19 20 18 17 21 25 28 29 31 33 31 30 29 32 35 38 43 47 51 51 44 36 34 22 27 22 23 28 30 30 30 31
13 10 9 13 14 12 12 16 15 14 16 20 18 17 18 22 22 24 27 28 27 28 29 29 30 33 36 40 43 47 45 37 32 22 28 22 20 24 28 29 31 32 32 30
8 5 8 12 15 14 12 14 15 21 20 18 19 18 19 24 27 27 27 26 26 24 23 26 28 31 36 36 29 23 19 21 20 19 18 21 26 28 30 32 33 34 35 33
10 5 11 18 18 18 18 18 19 18 20 21 19 20 21 23 25 25 25 24 23 24 21 23 28 27 24 19 17 17 18 18 18 20 22 26 28 30 32 34 35 35 36 36
14 14 18 18 19 21 22 21 19 21 22 19 19 22 22 20 18 19 20 23 23 23 24 24 19 16 16 14 15 17 19 21 23 26 28 29 31 33 34 35 36 37 36 37
20 23 25 26 26 25 23 21 23 23 21 21 23 22 21 21 22 24 24 22 21 20 17 17 18 16 15 18 19 21 23 25 27 30 32 34 36 36 35 36 36 35 35 36
20 20 22 22 23 23 23 24 24 23 22 22 20 20 21 20 18 17 14 13 13 15 16 16 15 17 20 23 25 26 28 30 32 34 36 38 40 42 43 42 40 36 35 33
22 22 23 22 22 23 23 24 23 22 21 20 18 16 13 12 12 11 11 12 14 14 15 17 18 21 25 28 31 33 36 36 37 37 39 41 43 44 40 39 41 40 39 34
23 24 23 23 22 24 23 23 23 21 19 15 13 11 10 11 11 12 12 12 14 16 19 21 24 27 29 31 33 36 38 41 43 45 46 45 41 41 44 44 45 44 43 36
23 23 23 23 23 21 22 22 19 15 13 12 12 11 11 12 12 13 13 15 17 20 23 26 28 31 34 36 39 41 43 45 46 47 48 47 45 44 44 45 46 44 42 36
24 23 22 24 23 20 18 14 12 11 11 11 11 11 12 12 13 15 17 20 23 26 28 31 34 37 40 44 46 48 50 51 51 50 49 47 46 43 41 43 41 36 34 34
24 23 22 21 19 14 11 11 11 11 11 11 12 13 14 15 17 19 22 24 27 30 33 37 40 43 45 46 47 49 51 51 50 49 47 44 40 38 33 35 34 31 29 26
23 18 16 15 10 10 10 10 10 10 12 13 14 15 17 19 21 23 26 30 33 36 40 43 47 49 49 51 53 53 52 50 48 45 41 38 35 32 27 24 27 24 25 26
13 10 10 12 11 10 10 9 11 12 13 14 16 18 20 22 24 27 31 36 39 42 46 48 50 50 51 52 51 49 46 44 42 40 36 31 27 26 25 29 24 23 25 25
13 13 12 10 9 8 10 11 12 13 15 16 18 20 23 26 29 32 36 40 43 46 48 49 49 50 50 50 47 45 43 42 40 37 32 28 23 20 19 29 28 25 29 27
14 12 9 8 8 10 11 13 14 15 17 19 21 24 27 30 33 36 41 44 46 47 47 48 48 47 46 44 44 43 43 42 39 36 32 30 28 27 24 25 25 28 30 28
10 8 7 9 11 12 13 15 16 18 21 23 25 27 30 33 37 41 44 45 46 45 45 45 43 42 42 42 41 41 42 40 37 34 31 29 29 33 36 36 33 32 30 27
9 10 11 12 14 14 16 19 20 20 23 27 29 31 34 38 41 42 43 43 42 41 41 41 41 40 39 39 39 38 38 37 34 31 29 27 27 27 28 28 28 27 25 24
11 12 14 15 16 17 19 21 23 25 27 28 30 35 38 41 41 42 41 41 40 39 39 39 39 38 36 36 35 34 34 34 33 30 28 27 26 25 24 24 25 24 24 23
12 14 16 18 19 20 22 23 25 27 28 31 35 38 40 41 41 39 38 38 39 38 38 37 36 35 35 34 33 32 32 31 30 28 28 27 26 26 25 22 21 21 22 21
16 18 19 20 21 23 24 25 27 29 33 35 37 39 41 40 39 37 37 37 38 37 36 34 33 33 33 32 30 30 29 29 28 27 27 26 25 24 23 23 22 21 20 20

GFSNGP_700_spd_048.txt.gz
Wind_Speed
12 13 11 8 8 10 13 10 5 11 22 17 17 15 8 15 17 15 13 14 17 19 21 24 25 27 28 31 31 28 27 32 35 37 40 42 45 50 49 54 47 39 35 39
21 21 20 18 15 15 16 16 19 17 14 10 9 7 7 10 17 20 17 16 17 20 23 24 25 27 28 31 29 28 30 32 36 39 43 48 50 52 54 50 45 41 39 32
20 20 17 19 24 23 21 22 22 20 14 10 12 14 12 12 14 14 14 16 16 19 20 20 18 22 26 28 31 34 36 37 39 43 46 49 53 58 60 48 39 39 24 24
10 12 1 13 16 13 15 11 10 14 15 13 13 10 7 8 9 10 13 16 17 17 18 19 21 24 28 32 34 34 35 39 40 43 48 54 59 50 34 41 29 23 24 24
8 16 8 8 10 13 14 13 13 12 13 11 8 7 10 11 13 13 14 14 17 19 20 21 28 27 26 29 32 35 38 42 45 49 53 54 35 39 29 24 24 20 25 29
12 6 7 15 18 24 18 16 17 14 11 10 11 11 14 14 16 17 18 20 21 22 25 25 22 22 25 29 31 34 40 43 48 48 45 36 40 26 22 19 21 25 28 29
23 14 12 15 11 14 17 15 20 17 16 13 13 17 20 20 19 20 21 22 22 20 19 18 20 23 27 31 34 37 38 47 38 36 36 29 25 23 22 22 25 29 31 31
20 14 13 17 21 24 18 18 17 15 12 13 18 20 21 21 20 19 18 19 19 17 17 18 22 25 32 30 30 34 36 35 30 28 27 27 25 25 25 28 30 32 34 35
17 12 14 13 20 20 20 15 11 12 12 17 17 20 21 19 17 17 18 18 19 18 20 23 25 27 32 32 33 32 29 25 25 25 25 27 28 28 30 32 34 36 37 37
17 14 13 14 14 14 15 14 13 15 16 17 20 21 20 19 19 19 19 18 21 23 24 26 26 27 30 28 24 23 24 24 25 27 28 29 31 33 35 36 37 38 39 40
21 17 18 17 18 18 19 19 20 20 20 21 22 20 20 22 23 21 20 21 23 26 25 25 25 23 21 22 23 22 22 25 27 29 30 32 33 36 38 39 39 40 41 42
27 23 22 21 22 23 23 22 23 24 24 24 22 21 20 20 21 23 24 25 24 22 19 18 18 20 21 21 22 23 25 27 29 32 35 37 39 41 41 42 40 39 39 37
22 20 20 22 23 24 24 24 24 25 24 23 21 21 20 21 23 23 21 20 19 18 18 19 20 20 21 23 25 28 30 32 35 37 40 42 43 45 47 45 44 41 37 37
19 20 22 23 24 25 26 26 26 25 24 22 21 20 20 18 16 16 17 18 19 19 19 19 20 22 25 28 31 34 37 40 43 45 46 47 48 49 49 49 49 45 41 41
20 20 22 23 24 25 25 25 25 23 21 20 18 16 16 16 16 16 17 17 17 18 20 22 25 27 30 33 35 38 41 43 45 46 47 48 49 50 50 50 51 50 44 41
21 23 24 25 25 25 25 25 22 21 19 16 15 14 14 14 15 15 16 16 18 21 24 26 29 32 35 38 41 43 46 47 48 50 51 51 50 49 48 47 46 43 39 34
25 25 24 24 23 22 22 22 21 18 15 14 14 14 14 14 14 16 18 19 22 25 28 31 33 36 40 43 45 47 48 50 52 52 51 49 46 44 41 40 40 38 34 28
27 26 24 23 22 21 20 19 17 15 13 13 13 12 13 14 16 18 20 23 26 29 32 35 38 41 43 46 48 50 52 52 50 49 47 45 43 40 38 37 35 29 23 25
25 26 24 22 20 16 15 15 13 12 10 10 11 12 14 16 18 21 23 26 28 31 35 37 41 44 46 48 49 50 50 48 46 44 43 42 41 38 35 32 28 24 20 24
22 19 16 14 15 15 15 13 9 9 10 12 13 15 17 19 21 24 27 29 32 36 40 42 44 45 47 48 48 48 46 44 43 43 42 41 38 35 31 27 23 15 20 21
14 13 15 16 17 14 11 9 9 9 11 13 15 18 20 22 24 26 29 33 36 39 41 43 45 46 46 46 45 45 43 42 42 42 40 39 36 33 31 30 27 31 24 21
13 17 17 15 12 10 8 8 8 10 13 15 18 20 22 24 27 30 32 36 39 41 43 44 44 44 44 44 43 41 40 40 39 38 37 36 36 33 31 30 32 36 36 33
12 12 12 11 10 8 7 8 10 13 16 18 20 22 24 26 28 32 37 39 40 42 43 43 43 42 41 40 39 38 38 37 35 34 34 34 33 33 31 28 27 27 29 27
12 13 10 6 6 8 9 12 15 17 18 20 23 26 27 29 34 37 39 40 41 40 40 40 39 39 39 37 36 35 35 34 32 32 32 32 31 31 30 28 27 26 24 24
10 7 6 7 9 11 14 16 19 21 22 24 27 29 31 35 36 38 39 39 40 39 38 37 37 38 36 34 34 34 33 31 31 30 29 28 28 28 28 27 26 24 24 22
6 8 9 10 13 16 19 21 22 23 25 27 29 32 36 37 38 38 38 38 38 37 36 36 36 36 35 33 32 31 30 29 28 27 27 27 27 27 27 26 25 23 22 22
12 13 13 15 19 21 22 24 26 28 29 30 33 37 38 38 38 37 38 38 37 36 35 36 35 34 33 31 30 29 28 27 26 26 27 28 29 29 28 27 26 24 22 21

GFSNGP_700_spd_054.txt.gz
Wind_Speed
29 24 22 22 19 18 22 18 23 25 25 19 15 17 18 17 18 18 19 19 18 18 17 18 19 21 24 26 27 28 28 29 29 29 31 28 26 30 36 36 41 44 45 48
27 25 22 20 20 21 21 24 25 23 24 19 20 19 18 16 17 16 15 17 21 21 22 23 24 25 25 28 27 26 28 27 27 26 27 33 30 38 39 43 46 49 41 39
25 27 23 15 25 25 25 26 28 30 29 28 28 27 27 24 21 20 19 20 19 18 18 19 22 23 23 23 24 24 24 25 25 26 29 30 33 35 39 38 46 46 40 43
22 20 3 25 26 25 28 32 33 35 35 33 30 29 28 23 19 15 14 14 15 17 20 21 22 22 22 22 23 25 24 21 23 26 29 32 37 43 46 44 38 36 42 37
16 19 20 17 21 25 21 24 23 25 23 21 19 18 18 17 15 13 13 16 19 21 22 22 22 23 23 25 25 21 21 24 26 28 32 36 42 47 35 37 40 38 34 35
14 8 8 25 22 19 18 29 22 18 16 15 17 19 17 14 13 14 16 18 19 21 22 22 22 21 21 20 21 22 24 26 28 30 39 33 28 39 41 40 34 35 36 35
25 16 17 19 16 13 18 29 19 19 20 18 19 17 16 14 13 16 18 21 22 23 22 22 22 21 22 22 23 23 26 26 28 25 29 38 41 37 34 35 37 38 38 40
27 19 14 21 18 24 28 24 20 18 18 23 20 18 16 16 17 19 21 21 21 22 22 23 25 26 24 24 23 26 29 30 35 39 40 38 35 35 36 37 38 40 44 45
29 28 28 20 20 20 16 21 23 16 13 18 19 18 17 18 20 20 20 21 22 23 26 27 27 27 25 27 28 30 34 33 31 33 31 34 34 34 37 39 43 46 48 50
32 33 31 28 28 26 25 20 21 17 13 16 17 17 18 20 20 21 22 23 24 26 27 27 23 26 29 30 34 31 28 27 29 30 31 33 36 38 42 44 47 50 53 55
35 33 29 31 28 25 21 20 19 17 16 16 17 18 20 21 22 24 24 24 26 27 26 23 27 29 31 27 23 24 26 27 28 31 34 36 38 41 44 46 50 53 55 57
35 28 28 31 24 21 21 20 18 18 18 18 20 21 23 24 25 25 25 25 25 26 27 28 28 24 22 23 24 25 26 28 31 33 36 39 43 45 47 50 52 54 56 58
33 36 34 25 21 19 19 19 20 21 22 23 24 25 26 26 26 25 25 26 27 27 26 22 21 22 23 23 24 26 29 32 34 37 40 44 47 50 54 54 55 55 54 52
34 31 30 27 22 21 22 22 22 23 25 27 28 27 28 27 26 26 26 26 26 23 21 20 21 21 22 24 27 29 32 35 38 40 44 47 50 53 56 58 58 55 49 46
36 29 30 27 23 23 23 23 24 26 28 29 29 29 27 26 26 25 24 21 19 19 19 19 20 22 25 27 29 32 34 36 39 42 45 49 51 53 53 52 51 50 48 46
24 30 28 27 26 24 24 24 25 28 29 29 28 26 26 24 23 22 19 18 16 17 18 21 23 26 27 29 31 33 36 39 42 44 47 50 51 50 49 48 47 47 46 45
22 25 27 26 25 24 26 26 27 28 27 28 27 25 24 22 20 18 16 16 17 18 21 23 25 28 30 31 33 36 38 40 43 46 47 48 49 48 46 46 45 44 42 41
27 28 25 23 22 23 25 26 27 28 27 25 24 24 22 18 17 19 18 16 18 20 23 25 28 30 31 34 36 38 39 42 44 46 47 47 46 45 44 43 42 40 38 36
25 24 30 28 28 27 27 23 22 20 22 23 23 21 20 20 18 15 14 16 21 23 25 28 29 31 34 36 37 38 40 42 44 46 46 45 44 42 42 41 39 37 36 35
29 32 29 25 22 18 17 17 19 20 23 25 22 19 17 14 12 12 17 22 24 26 27 29 31 34 36 37 37 39 41 43 44 45 45 44 42 40 39 37 36 34 33 33
24 23 18 16 17 19 18 18 19 22 21 17 15 13 12 10 12 18 22 24 26 27 28 31 34 36 37 37 38 40 42 44 44 44 44 42 40 38 37 35 33 32 31 31
16 17 19 17 12 12 12 15 16 15 15 14 12 10 10 14 19 22 24 26 27 29 31 34 36 36 37 38 39 41 43 44 44 43 42 39 38 36 34 33 32 32 32 32
14 11 9 10 12 13 11 13 14 13 12 9 9 12 16 20 22 24 26 28 29 32 33 35 37 37 38 39 40 42 43 43 42 40 39 37 36 34 33 32 33 33 33 34
5 5 9 11 12 12 12 12 12 10 9 10 13 18 20 22 24 26 28 30 32 34 36 38 38 39 40 40 41 42 42 42 40 37 36 35 34 33 32 33 34 35 35 35
3 7 9 10 10 11 11 10 10 10 12 15 19 21 23 25 27 29 30 32 34 37 39 40 40 41 41 41 41 41 40 39 37 35 34 33 31 31 32 33 35 37 37 36
6 7 7 9 10 10 12 13 14 16 17 20 23 25 27 29 30 31 33 35 38 40 42 42 42 42 41 41 39 38 37 37 36 34 32 31 30 30 31 33 35 35 34 33
3 5 7 9 13 16 19 20 21 22 23 25 27 29 31 32 33 35 37 39 41 42 43 42 41 41 40 39 37 36 35 35 34 32 31 30 29 30 31 33 34 33 32 31

GFSNGP_700_spd_057.txt.gz
Wind_Speed
26 25 25 27 25 22 21 19 24 22 24 18 17 17 12 13 16 17 17 17 19 20 20 19 18 17 18 21 23 24 25 25 26 26 28 27 29 30 35 25 31 42 34 39
24 24 26 26 28 24 22 19 21 22 26 20 20 20 18 17 18 18 19 19 18 19 23 24 24 25 24 26 27 29 31 30 30 30 28 28 28 33 25 32 37 36 34 38
25 28 24 22 28 26 24 21 24 26 26 24 24 24 26 27 24 24 23 24 23 22 23 22 21 22 22 23 24 25 25 26 26 28 30 28 23 28 36 34 36 40 31 33
18 20 5 25 25 24 22 26 28 31 31 29 27 26 27 26 25 22 20 17 16 16 16 17 18 20 21 23 24 25 27 29 30 28 23 25 29 30 35 37 34 30 40 42
16 21 21 15 22 24 22 29 27 28 24 21 22 22 20 19 17 16 14 14 15 16 17 19 21 23 23 23 23 24 26 25 25 25 23 30 28 31 28 28 38 39 36 32
14 10 9 25 23 22 20 31 24 20 20 17 16 18 16 16 17 16 16 16 17 17 19 19 19 19 19 20 21 22 23 24 23 22 23 23 24 28 35 37 33 33 33 33
30 20 18 17 18 18 17 32 18 16 13 17 17 17 14 17 18 17 16 16 17 18 19 18 18 18 19 21 21 22 21 20 24 22 22 28 33 33 31 31 32 33 35 36
28 24 16 23 22 26 32 25 18 16 16 16 16 18 20 20 18 17 16 16 17 18 19 19 19 20 21 22 22 23 24 24 27 28 26 25 26 28 29 31 33 36 39 42
29 26 28 21 21 22 23 21 21 19 18 15 18 21 22 20 18 16 16 17 18 18 19 20 21 22 23 20 23 27 27 27 22 22 24 26 26 29 31 34 38 41 45 48
29 32 33 31 30 29 27 26 22 21 18 15 17 22 21 19 17 16 18 18 18 19 20 21 22 24 25 25 27 27 21 21 22 23 24 26 30 33 36 38 41 44 48 51
31 33 33 32 30 28 29 26 25 22 19 18 22 22 21 20 18 19 19 19 20 20 21 22 23 24 26 28 24 20 21 22 22 24 26 29 32 34 37 40 44 48 51 55
31 25 25 26 25 29 25 27 24 22 20 21 22 21 22 21 21 21 21 22 22 23 24 24 25 27 24 20 20 20 21 23 25 28 30 32 34 36 39 42 45 49 51 53
26 27 30 29 24 28 34 28 23 23 21 20 21 21 23 24 24 23 23 23 24 24 25 25 27 21 19 19 20 21 23 26 29 31 33 35 38 40 42 44 47 49 50 51
28 26 27 30 31 28 25 24 25 25 25 25 25 26 26 27 25 25 25 25 25 24 25 26 21 19 19 20 22 25 27 29 31 33 35 38 39 41 44 48 50 51 51 51
32 32 32 34 31 26 25 25 26 27 27 28 28 29 29 27 26 27 26 26 27 26 24 20 18 18 20 23 26 27 29 31 33 35 37 38 40 43 46 49 51 52 51 49
31 32 32 30 27 26 27 26 27 28 29 30 31 31 29 28 29 25 26 26 24 21 19 18 20 21 23 25 27 29 31 32 35 36 37 39 42 45 47 49 50 50 49 48
30 33 31 28 25 27 29 28 29 30 31 33 32 31 30 29 25 26 26 24 20 19 21 21 20 20 24 27 28 30 32 35 36 37 38 40 43 46 48 49 48 47 45 43
29 29 27 21 21 25 28 30 32 34 35 35 35 32 29 25 25 26 24 22 21 20 17 17 20 24 27 28 30 32 34 35 36 37 39 41 44 46 47 47 45 43 40 38
29 28 21 21 26 26 29 30 32 34 35 30 22 22 23 24 25 24 19 17 16 14 16 20 24 26 28 30 32 34 35 36 37 38 40 42 44 45 45 43 41 39 38 36
36 34 29 27 23 23 26 26 28 23 20 23 25 25 26 20 15 15 15 13 12 16 21 24 26 28 30 32 34 35 36 37 38 40 41 42 43 43 41 39 38 36 35 34
12 14 18 21 23 21 17 14 17 20 25 28 24 17 13 14 14 12 10 13 17 21 23 26 28 30 32 34 35 36 37 38 39 40 41 41 41 40 38 36 35 34 34 34
15 13 12 12 13 14 16 18 19 19 17 13 12 12 12 11 9 11 14 18 21 23 26 28 30 31 33 35 37 37 38 39 39 40 40 41 40 38 36 35 34 33 33 34
8 6 6 8 10 13 11 9 9 9 10 11 11 10 9 9 13 17 20 22 24 26 28 30 31 33 35 37 38 38 39 39 40 40 40 39 38 36 35 33 33 33 33 35
2 1 3 5 5 6 7 7 8 9 9 10 10 11 13 16 19 22 24 25 27 29 31 32 33 35 37 38 39 39 39 39 40 40 38 37 36 35 34 33 32 33 34 36
4 3 5 6 7 8 7 7 7 9 11 13 15 17 19 22 24 27 28 30 32 33 34 35 36 38 39 40 40 40 40 40 39 38 36 35 34 33 32 31 31 32 34 35
3 4 4 4 4 5 6 9 13 16 18 19 21 23 25 27 29 31 33 35 36 37 37 38 39 40 40 40 40 40 39 39 38 36 34 34 33 32 30 29 29 30 32 32
3 2 1 3 6 10 13 16 18 21 23 25 27 29 31 33 35 36 37 38 38 39 39 40 41 41 40 40 40 39 38 36 35 34 33 33 32 30 29 28 28 29 30 30

GFSNGP_700_spd_060.txt.gz
Wind_Speed
24 19 18 20 19 19 23 23 22 18 17 15 13 15 17 17 14 14 17 16 17 19 21 22 21 20 19 20 22 24 25 26 28 29 29 31 30 30 29 29 33 32 28 30
23 21 21 23 21 21 23 22 21 21 21 13 15 16 17 19 19 17 17 19 20 21 20 25 26 26 25 26 25 26 28 30 32 31 32 32 31 30 28 29 31 28 28 33
19 17 16 20 28 23 21 25 23 22 21 17 21 22 23 23 23 24 25 23 25 25 24 23 26 27 26 25 23 24 26 27 27 28 27 28 30 30 26 24 30 32 30 30
17 15 7 21 18 18 21 23 22 22 23 24 26 28 25 25 26 26 23 22 22 22 20 18 17 17 19 21 23 25 26 26 27 28 29 30 26 25 24 25 26 30 29 33
16 19 19 18 21 21 22 24 21 23 24 27 27 25 23 23 23 20 18 18 17 15 15 15 16 19 21 23 24 24 23 24 25 25 26 27 27 23 24 22 26 31 34 33
16 10 9 19 22 20 19 27 20 21 16 18 20 22 20 17 17 17 19 20 18 16 16 17 19 21 22 22 21 21 22 24 26 28 26 23 20 21 26 29 29 28 29 30
23 11 15 16 16 15 16 30 15 17 16 18 18 19 20 17 18 20 22 20 18 17 17 17 18 18 18 19 20 21 22 22 22 23 21 23 23 23 22 24 26 27 29 31
19 14 15 17 19 23 25 20 20 19 19 17 19 18 19 21 21 23 22 20 18 17 17 17 17 18 18 20 20 21 22 23 24 23 22 19 20 22 23 24 27 30 32 34
20 20 23 18 17 20 20 21 22 22 22 20 20 21 21 22 24 24 22 20 19 18 18 18 18 18 19 20 21 23 23 23 21 18 19 21 21 23 25 28 30 32 35 39
35 28 27 24 23 24 24 26 26 26 25 23 22 21 23 25 25 24 22 20 19 19 19 19 20 21 22 23 24 25 24 20 20 20 21 22 24 26 28 30 32 35 38 41
43 38 29 26 27 27 25 25 23 25 26 25 23 23 23 27 27 25 23 20 20 20 21 22 23 24 24 24 25 23 19 20 20 21 22 25 27 28 30 32 34 37 40 43
35 27 33 24 22 25 26 25 25 27 25 26 25 25 27 29 28 26 25 23 23 23 23 25 25 25 25 25 21 20 20 20 20 22 24 26 28 31 30 33 35 38 41 44
31 30 32 31 27 26 28 27 25 27 27 26 25 28 29 30 29 29 28 26 26 25 27 27 26 25 25 24 21 20 20 21 23 25 27 28 30 32 34 37 37 38 42 45
30 25 31 27 27 27 27 28 30 27 25 28 28 28 29 31 31 32 31 29 28 28 29 27 26 27 26 21 20 20 22 24 26 28 29 30 32 34 35 37 39 41 45 47
22 29 35 33 33 31 32 34 31 28 28 31 32 32 32 33 35 34 33 31 31 32 29 27 27 26 22 20 22 24 25 26 28 29 31 33 34 36 37 39 41 43 46 47
27 33 34 32 35 35 34 34 30 30 30 31 33 35 37 38 37 34 33 34 33 30 28 28 25 21 21 24 23 23 25 27 29 31 33 35 36 37 39 40 42 44 46 46
24 26 29 33 35 38 37 32 30 32 35 37 38 40 39 38 38 39 38 36 32 30 24 22 23 23 21 20 22 25 28 30 31 34 35 36 37 39 40 41 43 45 45 45
33 30 30 32 36 36 29 30 31 35 37 39 39 39 38 38 39 37 32 27 23 24 22 19 19 18 17 21 24 27 29 31 34 35 36 37 39 40 41 42 43 44 44 42
27 27 26 26 29 31 30 25 28 32 33 36 36 35 37 34 26 25 32 29 18 16 18 17 16 17 21 25 27 29 31 33 34 36 37 38 39 40 41 42 43 43 41 40
29 32 29 28 26 24 22 24 26 27 29 28 27 25 25 28 30 24 17 15 16 17 15 15 18 22 25 27 29 31 32 33 35 37 38 39 40 41 42 42 42 40 39 37
17 14 9 7 11 14 16 14 15 17 18 19 21 24 21 18 16 14 14 16 16 15 16 19 23 25 27 29 31 32 33 35 36 38 39 40 41 41 41 41 40 38 37 35
11 9 10 7 7 7 8 10 12 12 11 12 13 13 12 11 12 14 16 15 15 17 21 24 26 28 30 32 33 34 35 37 38 40 41 41 41 41 40 39 37 36 34 33
8 7 4 3 4 4 3 5 5 8 10 10 10 10 11 13 16 16 16 18 20 23 26 28 30 31 33 35 36 37 38 39 40 41 41 41 40 40 38 37 35 34 33 32
3 3 3 3 3 4 3 5 7 8 8 8 9 10 13 16 18 20 21 24 26 29 31 33 34 35 37 38 39 39 40 41 41 41 41 40 39 38 36 34 33 33 31 30
9 9 8 6 4 3 4 3 3 3 5 9 13 17 20 22 23 25 27 30 33 35 37 38 39 40 41 41 41 41 41 42 42 41 40 39 37 35 34 33 32 31 30 29
9 6 4 2 1 0 0 2 6 9 13 16 19 21 23 26 28 31 34 36 38 40 41 42 42 42 42 41 41 41 41 42 41 40 38 36 35 33 32 32 31 29 28 27
5 4 3 1 1 4 7 11 15 18 21 23 26 28 30 32 34 37 38 40 41 42 43 43 44 43 42 41 41 41 41 41 40 38 36 34 33 32 31 30 28 27 26 25

GFSNGP_700_spd_063.txt.gz
Wind_Speed
28 22 17 19 23 25 27 27 27 22 22 18 12 13 14 12 15 16 15 15 17 16 19 20 23 24 24 25 25 25 26 25 25 27 27 29 31 33 32 32 33 30 31 32
28 25 25 22 22 24 24 24 26 26 25 20 16 16 17 16 18 21 22 19 18 19 23 26 24 28 30 28 27 27 27 28 29 30 32 33 34 33 33 31 28 30 33 32
28 27 26 30 27 25 24 23 23 26 23 19 18 17 18 17 20 26 26 25 23 26 29 31 30 28 33 32 31 30 32 33 32 31 30 30 30 30 31 33 32 30 32 32
18 18 13 23 19 22 26 26 23 22 23 21 20 20 17 22 24 27 28 28 29 27 25 25 24 23 23 23 22 22 23 24 26 27 29 30 31 31 31 31 32 31 30 28
20 22 18 18 22 20 20 22 21 21 22 21 20 23 27 25 27 27 27 28 25 21 21 20 18 17 17 19 20 21 23 24 26 26 27 28 30 31 30 28 25 24 26 29
15 21 18 27 25 15 16 25 21 20 17 16 21 23 18 21 20 21 22 21 20 20 20 20 19 19 19 20 22 23 24 25 25 27 28 29 28 26 25 25 25 25 25 26
26 14 17 18 16 17 18 25 9 11 14 16 19 18 20 21 22 21 22 21 23 24 23 21 20 20 21 23 24 24 24 25 26 26 26 26 25 25 23 22 24 24 24 26
22 20 16 18 20 23 25 17 16 15 14 16 20 21 19 22 24 23 23 25 27 26 24 22 21 22 22 23 23 24 24 25 25 26 26 26 23 22 23 23 24 26 28 28
18 17 22 16 17 20 20 19 18 18 16 19 21 23 21 21 24 25 26 28 28 27 25 23 23 23 23 24 24 24 25 25 25 26 24 22 22 23 23 24 26 28 29 31
17 22 18 16 14 18 19 19 19 20 21 21 21 24 25 23 25 26 28 30 30 28 26 24 24 25 25 25 26 26 26 27 27 25 23 23 23 24 25 26 28 30 32 34
32 31 28 28 32 24 23 23 24 24 24 24 24 24 27 26 26 27 29 32 31 30 28 26 26 26 27 27 28 29 28 28 25 24 24 24 24 26 28 28 29 31 34 36
26 19 25 27 28 28 30 27 22 24 25 25 26 28 27 27 27 30 32 32 32 32 30 28 28 29 29 30 31 31 28 25 24 24 24 25 28 28 28 30 31 32 34 36
27 22 25 24 22 22 23 24 26 25 25 27 26 27 27 27 29 33 34 34 35 35 33 32 32 32 32 32 31 30 28 26 24 24 25 26 28 29 33 32 32 34 35 38
23 25 34 28 31 34 28 27 28 29 27 28 30 30 31 31 32 36 37 38 38 37 36 35 35 35 34 32 31 29 26 24 24 25 26 27 28 30 32 34 36 40 42 40
22 27 31 32 33 30 29 29 31 32 32 33 33 35 34 35 36 40 42 41 40 40 39 39 39 39 35 32 30 25 22 24 26 25 27 28 30 32 33 35 37 38 39 42
22 26 33 31 29 32 36 39 38 37 35 34 35 37 40 40 43 43 43 43 42 45 45 42 41 40 35 25 22 23 24 22 22 26 28 30 32 33 35 37 38 40 41 42
24 25 26 27 28 31 34 36 39 40 42 40 38 38 42 46 46 47 47 47 46 44 43 43 41 34 24 21 22 23 21 20 24 28 31 32 34 35 37 38 40 41 42 43
28 29 27 26 30 35 37 38 39 39 37 38 39 41 43 46 47 48 47 45 45 45 41 30 24 23 21 22 22 21 21 23 27 30 32 33 34 36 38 39 41 42 42 43
40 37 37 39 35 35 35 33 32 33 33 32 34 36 38 40 40 39 35 30 23 22 24 22 21 20 21 21 20 21 24 28 30 32 33 34 35 37 38 40 42 42 43 44
24 26 30 33 33 34 35 33 30 27 26 27 29 30 30 28 23 19 20 22 22 21 19 19 19 20 20 21 22 25 28 31 33 34 34 35 37 38 40 42 43 43 44 43
19 20 16 14 14 12 9 12 12 12 12 12 11 11 13 14 15 16 18 18 17 17 17 19 20 21 22 25 28 30 32 34 35 36 37 38 39 40 42 43 44 44 44 42
7 8 9 10 8 6 5 4 3 3 4 6 7 9 11 13 15 14 13 13 15 18 20 22 24 26 28 31 33 35 36 37 38 39 40 41 42 42 43 44 44 43 42 40
5 5 6 5 4 4 6 8 6 4 2 5 7 7 7 7 8 10 14 17 21 24 26 27 29 32 34 37 39 40 41 41 42 42 42 43 43 43 44 44 43 41 39 37
8 9 8 9 9 8 6 5 1 2 3 3 4 6 8 11 15 19 23 24 26 28 30 32 35 38 40 42 43 44 44 44 44 43 43 43 43 43 43 42 40 38 36 35
11 12 12 10 7 4 1 2 2 3 3 5 8 12 15 19 22 25 27 29 32 35 37 38 42 43 44 45 45 45 45 44 44 42 42 42 42 41 41 39 37 35 34 33
11 8 6 3 2 2 2 1 2 6 10 13 17 20 23 25 28 30 33 35 37 39 41 43 44 45 45 46 47 46 45 44 42 41 41 41 40 39 37 35 34 33 32 30
7 6 5 4 2 1 4 7 11 14 17 21 23 26 28 30 32 34 36 38 40 43 44 46 47 49 49 47 46 45 43 42 41 40 39 38 36 35 33 32 32 31 29 27

GFSNGP_700_spd_066.txt.gz
Wind_Speed
27 26 28 27 26 26 27 24 27 21 22 20 18 10 12 11 12 13 15 14 15 13 18 20 20 18 18 21 23 24 25 24 25 25 24 24 26 30 30 31 32 32 32 33
27 31 27 23 27 30 27 27 25 26 26 22 21 17 15 14 14 18 15 20 19 16 21 29 24 20 22 25 27 28 27 28 27 27 29 28 31 32 33 34 34 34 32 32
30 29 26 32 32 23 23 26 25 26 23 21 21 18 17 16 17 17 20 21 21 22 29 33 29 26 30 31 32 32 30 29 30 30 34 35 33 31 32 32 33 33 33 33
24 26 23 27 27 24 24 25 22 23 21 20 21 20 19 19 16 19 26 27 24 29 30 32 34 35 27 27 29 31 32 35 33 30 28 30 31 31 30 30 31 32 32 31
24 26 23 28 19 22 24 27 23 25 23 20 20 26 21 21 19 26 30 27 25 27 31 34 31 25 22 21 21 21 22 24 26 28 28 27 26 27 29 30 30 29 28 28
19 21 14 23 23 16 22 26 21 19 19 18 21 19 14 15 20 22 22 20 23 24 25 24 22 20 18 18 19 21 23 23 24 25 25 26 27 28 28 28 29 28 27 25
28 17 17 19 27 25 26 21 14 17 17 21 18 18 18 21 20 19 20 22 24 24 24 22 22 22 22 22 22 23 24 25 26 26 26 26 27 28 30 29 27 24 26 26
27 24 19 11 20 30 29 25 25 14 15 16 18 18 21 21 23 20 20 23 24 26 26 26 26 26 25 24 24 26 26 26 26 27 28 28 29 30 29 26 26 26 25 27
20 26 24 22 26 19 21 20 19 15 19 16 21 22 20 21 23 23 21 22 25 26 28 29 30 29 28 27 27 27 27 27 28 28 29 30 30 27 27 26 26 26 28 29
15 31 14 11 20 22 21 23 26 25 22 18 23 23 21 21 23 26 24 24 27 28 31 32 32 31 30 28 28 29 29 29 30 30 30 32 29 28 26 25 26 28 29 30
22 21 17 16 17 13 18 22 25 23 21 21 26 27 25 24 24 26 28 28 29 30 33 35 35 34 31 30 30 31 31 31 31 32 32 31 28 27 25 26 28 29 30 31
21 19 15 16 18 22 32 33 25 30 28 21 26 26 24 24 25 28 30 30 31 34 36 38 37 36 35 34 34 34 34 33 33 32 30 30 26 27 27 27 27 28 30 32
23 22 26 22 19 22 22 20 21 25 24 31 34 31 25 27 26 26 30 33 35 36 38 40 40 40 40 40 39 38 36 36 36 32 29 27 27 28 28 27 27 28 30 32
17 20 25 23 28 31 30 28 28 25 23 22 23 26 27 28 28 32 35 36 39 41 42 42 43 44 43 41 39 38 40 41 37 31 26 25 27 26 27 29 30 31 32 35
22 20 24 27 29 31 29 30 31 29 27 27 28 28 28 30 30 35 39 41 44 46 45 46 45 45 44 42 44 43 43 38 28 25 27 26 22 24 26 29 32 33 36 39
19 16 24 26 29 28 29 25 26 30 28 29 29 27 29 33 36 39 42 46 49 49 50 50 46 44 45 45 43 42 34 25 23 25 27 26 24 25 27 30 33 34 35 37
19 24 26 25 30 29 23 22 25 27 27 30 31 35 38 40 41 42 44 48 50 50 49 45 44 43 42 37 28 19 22 24 26 26 24 23 25 27 29 32 33 34 36 38
27 25 26 25 29 32 29 25 28 31 34 35 36 37 37 37 38 39 42 44 43 41 37 32 24 19 21 24 26 25 24 23 24 24 26 26 28 31 32 34 35 36 38 39
39 41 37 37 35 33 32 32 36 34 30 29 27 26 27 29 31 32 32 30 28 25 21 20 22 22 22 22 22 23 24 25 26 27 29 30 33 34 35 37 38 39 40 41
32 30 29 29 29 37 42 40 36 31 25 22 20 19 18 19 20 18 14 12 13 14 15 17 18 18 19 20 22 24 27 28 30 32 33 34 36 37 38 40 41 42 43 43
21 20 19 18 18 20 19 16 12 9 8 7 5 4 4 4 5 5 6 8 11 13 13 13 16 18 21 25 28 29 31 32 34 36 38 39 40 41 42 43 43 43 43 43
8 8 8 8 8 8 7 5 4 4 5 5 5 3 1 2 3 5 6 7 8 11 14 19 23 25 28 30 31 33 35 37 39 41 43 44 45 45 45 44 44 43 42 42
6 7 7 7 6 6 8 9 9 8 7 6 4 3 3 3 4 6 9 12 16 20 23 26 28 30 33 35 38 40 42 43 44 45 45 45 45 44 44 43 42 41 40 39
10 11 10 11 11 12 9 10 8 7 6 6 5 4 5 8 11 14 17 21 24 27 30 32 34 37 39 41 43 44 44 45 46 46 46 46 45 43 42 40 39 38 37 36
13 13 13 12 9 7 6 6 6 5 4 4 6 9 12 15 18 21 25 28 31 34 36 37 39 40 42 44 45 46 47 48 47 46 45 43 41 39 39 38 37 36 34 32
12 9 7 6 5 5 5 4 2 4 7 10 13 16 20 23 26 28 31 33 34 36 39 42 43 44 44 45 45 46 46 46 45 43 41 39 38 37 36 35 33 31 30 29
7 6 6 5 4 3 4 6 9 13 16 18 20 22 24 27 29 31 34 36 37 38 39 39 41 43 44 45 44 43 41 40 39 37 35 33 32 31 30 29 28 28 27 26

GFSNGP_700_spd_069.txt.gz
Wind_Speed
34 30 24 32 29 29 32 31 24 19 18 16 17 19 19 16 19 20 19 16 17 19 19 20 15 16 21 22 23 23 22 23 26 24 22 22 21 21 22 24 28 31 32 32
34 20 29 30 35 35 33 29 23 26 28 17 16 19 15 19 15 18 25 21 21 24 24 25 23 19 22 23 20 20 24 27 27 25 24 26 25 26 28 31 33 33 31 32
29 29 33 19 35 29 20 27 23 30 23 21 22 24 19 18 20 21 22 20 22 26 26 29 29 26 25 26 27 30 32 31 31 30 27 26 29 31 35 31 29 30 31 30
24 24 16 13 22 21 27 25 22 20 14 13 15 17 22 21 21 19 18 21 22 23 26 29 31 31 30 29 32 36 34 32 31 28 28 32 33 29 30 31 30 28 29 30
27 30 28 27 22 21 21 22 25 23 21 19 16 18 24 23 20 19 19 20 25 25 27 25 28 30 30 34 35 28 26 25 28 29 25 26 29 30 30 28 27 28 29 31
9 13 15 33 29 18 17 27 15 19 20 17 18 20 25 26 18 17 20 20 21 24 23 23 25 26 30 27 23 21 20 19 21 23 24 26 27 26 26 26 27 29 29 30
21 12 12 20 25 18 21 15 22 23 23 20 25 25 19 19 17 19 22 21 21 22 24 24 24 24 24 23 20 20 20 21 22 23 25 25 26 26 27 27 28 30 30 28
25 11 21 5 17 27 27 26 20 15 16 17 18 13 15 19 20 20 21 23 22 21 22 23 24 25 25 24 24 23 23 23 24 25 26 27 28 29 29 30 28 28 28 31
26 20 10 23 18 15 15 16 20 24 25 21 21 23 21 20 22 23 22 24 23 24 24 24 25 26 27 28 27 26 25 26 27 28 29 29 29 31 31 30 28 27 28 30
21 29 19 26 33 27 31 26 22 24 23 23 26 20 21 21 22 22 22 23 25 25 24 26 28 28 30 31 31 30 29 28 29 31 31 31 31 31 32 31 31 30 29 29
23 18 20 31 12 20 24 27 17 15 16 17 21 20 21 22 21 22 22 23 26 27 27 28 30 32 33 35 35 35 33 33 33 34 34 33 32 32 32 31 31 30 29 28
20 13 14 15 15 13 17 28 23 22 20 21 24 27 26 24 20 23 24 24 26 28 29 31 34 36 37 39 40 39 38 37 38 37 36 35 34 33 31 30 29 28 30 29
16 15 10 16 15 19 17 21 24 26 29 30 29 27 27 30 28 24 26 26 29 31 33 35 37 39 41 44 44 43 41 39 39 40 39 37 36 31 28 27 25 31 29 27
20 18 19 23 24 25 26 28 28 26 26 23 22 20 20 20 22 26 29 30 30 33 37 38 40 42 46 47 47 47 45 41 40 40 40 38 31 28 29 31 31 29 29 31
24 23 22 20 24 28 30 28 25 26 25 22 22 24 25 26 28 29 30 31 33 35 39 41 43 45 48 49 47 45 42 41 42 40 34 26 27 30 32 33 33 31 31 32
30 33 29 27 26 28 30 27 28 27 25 24 26 28 28 29 29 29 31 34 36 38 41 45 46 47 47 47 48 48 44 36 28 28 29 28 28 29 30 29 29 30 31 33
24 25 24 24 27 28 26 26 26 20 16 16 17 20 23 25 25 27 30 33 37 40 43 43 41 39 37 36 33 27 24 27 27 26 26 26 27 28 29 30 31 32 34 34
25 23 20 20 23 21 22 24 25 27 25 23 21 23 23 23 23 26 30 33 36 36 34 34 34 31 26 22 21 22 23 23 23 24 26 27 29 31 31 32 34 35 36 38
31 32 32 33 32 33 35 34 34 33 29 27 25 26 24 21 22 24 26 27 28 27 25 19 16 14 15 16 17 18 19 21 23 26 28 31 33 34 35 36 37 38 39 41
38 38 37 35 33 28 25 25 25 25 27 26 24 18 13 11 16 19 19 20 15 9 6 7 10 11 12 14 17 20 23 26 30 33 34 35 35 37 38 40 42 43 44 44
20 20 20 21 20 19 19 19 16 14 12 13 12 10 9 9 8 6 5 3 2 4 6 7 10 14 17 21 25 28 31 33 34 36 38 39 41 42 43 44 45 45 45 44
8 8 9 10 11 12 12 10 9 9 9 9 10 10 8 6 4 2 1 1 2 6 10 14 17 21 25 29 31 33 36 38 39 41 42 43 44 45 45 46 46 44 44 43
6 7 9 10 10 11 15 15 14 12 10 9 8 8 7 5 3 2 5 8 11 15 18 21 24 28 31 33 36 38 39 41 43 44 46 47 48 47 46 45 44 43 41 40
15 15 15 15 14 13 10 11 10 10 10 9 8 5 3 4 7 10 13 16 19 22 25 28 30 33 35 38 40 42 43 45 46 46 47 46 45 44 44 43 42 40 38 36
14 13 13 12 10 9 9 11 10 8 5 4 4 6 9 12 15 18 21 23 26 28 31 33 34 36 37 39 40 42 43 44 45 45 45 43 42 40 38 37 36 34 33 31
11 10 9 8 7 8 8 6 4 5 7 10 13 15 17 19 22 23 25 28 30 32 34 34 34 35 36 38 39 39 40 40 39 37 36 34 33 31 29 28 27 27 26 26
5 6 7 6 5 4 5 6 9 11 13 15 17 19 22 24 26 27 28 27 27 28 30 32 34 35 36 36 36 34 33 31 30 28 26 25 24 23 23 23 23 23 23 22

GFSNGP_700_spd_072.txt.gz
Wind_Speed
38 29 29 17 19 21 37 37 27 32 29 24 23 19 21 20 16 21 19 20 18 19 18 18 16 14 13 12 17 22 24 24 25 21 18 19 20 23 21 22 22 22 23 25
30 33 31 23 24 28 28 24 29 30 25 25 22 24 24 26 25 19 23 24 22 23 23 24 22 22 20 17 17 22 24 25 24 23 23 24 23 25 24 24 25 26 29 31
25 29 22 24 38 35 27 19 18 29 29 24 26 25 26 20 26 17 23 23 27 24 24 21 24 26 26 25 23 22 25 26 29 31 30 29 28 29 27 26 27 31 29 29
17 17 9 22 28 27 27 29 26 18 27 24 27 26 28 27 18 21 25 21 22 18 20 22 25 27 27 27 28 27 27 30 32 30 30 31 30 28 28 29 27 28 29 30
20 26 13 12 17 21 25 29 29 18 18 21 17 17 15 17 19 20 21 21 18 17 20 24 25 26 24 25 28 30 31 33 28 25 23 23 25 24 24 26 27 28 28 27
15 13 9 13 26 16 10 23 20 14 18 23 27 24 23 22 18 20 20 20 18 19 20 23 23 23 24 25 27 29 31 26 24 21 18 20 22 24 26 27 28 27 27 27
13 14 6 8 9 20 29 23 17 26 21 22 22 22 21 17 15 21 19 17 17 19 20 19 20 21 23 24 26 26 24 22 21 20 22 23 25 26 27 27 27 27 28 29
19 15 8 13 10 16 16 11 16 19 21 17 13 10 16 16 17 19 19 16 15 17 18 18 18 19 21 23 23 23 23 23 24 25 26 26 26 27 28 28 28 29 30 31
22 21 19 16 29 9 20 15 16 14 20 23 24 19 15 18 18 19 18 18 17 17 19 20 19 19 21 21 21 23 25 27 29 29 29 29 30 30 29 31 32 33 33 33
23 27 23 25 28 25 24 19 14 14 15 13 11 16 21 19 15 17 18 19 19 20 22 23 22 22 23 23 23 26 29 32 33 33 33 34 33 32 33 33 34 35 35 34
26 25 24 27 19 25 27 35 26 21 17 15 11 9 11 17 24 25 26 23 22 23 24 25 26 27 27 27 27 29 32 35 36 37 37 37 37 37 37 36 35 35 35 34
29 22 23 18 21 11 16 30 36 23 21 16 16 15 15 16 18 23 24 25 25 27 27 27 27 28 29 30 31 33 35 38 40 40 40 38 39 39 38 38 37 32 29 30
17 22 17 13 9 7 8 6 8 13 17 33 27 25 24 24 22 24 28 32 31 28 26 26 28 30 32 34 36 37 39 41 42 42 42 42 41 41 41 39 35 30 31 36
29 20 20 16 14 13 14 13 19 23 25 25 26 26 24 25 24 26 27 26 25 26 28 29 32 31 31 33 38 41 41 44 45 45 45 45 46 46 42 38 38 38 38 39
27 28 26 19 17 16 18 22 24 24 26 26 27 27 25 21 22 24 27 29 29 28 28 29 31 32 35 38 40 40 42 44 44 44 45 45 43 39 35 34 33 34 36 38
26 24 21 19 20 21 21 22 24 25 24 25 23 21 20 22 23 24 25 26 26 26 28 30 32 34 37 36 33 33 35 37 38 37 35 31 31 32 31 31 33 35 36 37
31 26 18 20 19 19 18 20 21 20 20 20 18 15 15 16 17 20 23 26 28 29 32 35 37 35 32 31 32 35 36 32 28 26 26 26 27 27 29 31 33 35 37 40
21 23 23 21 20 21 22 21 20 18 19 22 22 24 23 22 19 20 24 27 30 33 32 31 28 27 28 32 30 23 20 20 21 22 23 24 27 29 32 35 38 40 41 43
18 20 21 23 25 26 28 30 30 30 32 31 32 31 28 24 21 23 28 30 29 28 25 24 24 27 22 16 15 16 16 17 19 23 26 29 32 35 38 41 43 44 45 45
28 31 32 32 33 34 34 35 33 32 27 26 25 21 19 21 22 23 23 21 20 20 21 19 13 11 11 12 13 16 20 23 27 30 34 37 40 42 43 44 45 46 47 47
27 26 20 19 20 21 21 23 22 22 20 18 16 15 15 15 13 12 12 12 10 7 7 7 8 11 14 18 21 25 28 31 34 37 39 41 43 44 46 47 48 49 50 50
15 14 12 12 14 16 17 14 12 13 15 14 11 10 8 7 6 4 3 2 2 4 8 12 15 19 22 25 29 32 35 37 40 42 44 45 46 47 48 48 49 49 48 48
7 6 7 7 8 10 12 12 12 12 12 12 10 9 8 6 4 1 3 6 10 13 16 19 22 26 29 31 34 37 39 40 41 42 43 45 46 47 47 48 47 46 45 43
13 14 15 16 16 15 13 15 13 13 12 12 10 7 3 1 5 8 11 14 17 19 22 25 28 30 32 33 34 36 37 39 40 41 42 42 42 42 41 41 39 38 37 35
14 14 13 13 11 11 12 14 11 9 6 4 2 4 7 10 12 14 17 20 22 24 26 27 27 28 30 32 34 36 37 37 38 38 37 36 35 34 33 31 30 29 29 29
12 11 10 10 10 11 9 7 4 3 4 7 9 11 13 15 18 20 22 24 24 24 24 26 27 29 30 32 32 32 32 32 31 32 31 31 30 29 28 27 27 26 26 26
7 8 8 7 6 5 4 5 7 9 10 13 15 17 19 20 21 21 21 21 22 24 26 27 28 29 29 29 29 29 29 28 28 28 27 27 26 26 25 25 24 24 24 23

GFSNGP_700_spd_075.txt.gz
Wind_Speed
37 35 28 26 26 29 32 36 33 33 38 33 31 25 19 13 16 22 20 19 18 17 16 15 13 11 13 14 14 13 17 21 23 21 20 18 19 18 20 19 20 21 22 25
33 37 30 33 33 31 25 17 25 37 31 28 25 26 26 24 21 22 21 20 22 21 20 21 19 15 15 18 17 18 15 19 21 22 21 23 23 25 24 24 25 24 25 29
19 26 24 24 36 40 40 26 9 22 26 22 25 24 25 26 26 25 27 26 26 25 22 19 18 19 20 20 19 21 23 21 23 23 23 25 28 31 30 28 28 29 30 31
2 12 5 20 27 25 49 33 28 24 23 26 21 21 26 29 31 28 23 24 22 22 20 24 19 19 20 21 25 22 23 23 22 24 26 30 33 29 26 26 28 29 30 29
5 18 10 7 7 17 22 32 23 28 21 16 16 23 24 25 26 27 22 20 23 23 23 20 20 22 22 22 22 20 20 24 26 29 29 29 25 22 21 22 25 24 26 27
11 6 5 4 10 14 11 29 31 17 17 27 19 23 24 18 22 20 22 19 19 22 19 21 22 21 21 21 21 21 21 23 27 27 25 22 20 19 20 22 23 24 25 26
18 14 12 7 10 18 18 9 13 11 21 26 17 17 19 27 23 24 22 19 22 22 23 21 21 19 18 19 19 21 23 25 25 24 22 20 19 20 22 23 24 25 27 28
11 6 9 7 11 14 20 19 15 22 17 22 20 19 12 18 22 21 21 25 27 22 18 16 17 17 17 18 20 21 22 22 23 23 23 23 23 24 25 27 27 28 29 30
11 12 13 10 12 18 16 17 12 14 19 23 23 27 20 14 17 18 22 25 20 14 13 15 15 16 18 20 21 22 23 23 23 25 26 27 28 29 29 30 31 32 32 32
18 21 21 22 13 20 19 18 17 17 11 12 14 19 21 18 16 19 21 22 15 14 14 14 17 20 22 24 25 25 25 26 27 29 30 30 31 32 34 35 36 36 36 36
21 21 24 23 21 19 21 22 24 29 28 16 10 14 20 18 19 21 23 20 18 18 18 20 22 25 26 26 26 27 27 28 30 32 34 34 35 36 37 38 39 39 40 40
32 29 31 24 20 18 16 13 17 24 27 33 31 13 13 11 15 20 22 24 23 21 23 25 26 26 26 27 27 27 27 28 31 33 35 37 38 39 41 43 43 44 45 47
27 18 25 25 20 16 16 18 17 9 19 30 36 20 20 13 18 14 20 21 23 25 26 28 27 25 25 26 28 29 30 26 27 29 32 34 35 37 39 41 45 47 48 47
18 20 20 17 19 18 17 17 12 10 7 10 12 16 21 24 16 21 23 27 25 23 22 21 22 25 27 28 28 28 30 30 29 30 32 33 32 34 37 39 41 41 41 39
11 15 21 24 23 18 19 19 18 15 16 20 19 20 21 18 17 21 21 22 22 22 22 24 25 25 26 28 29 30 31 31 31 30 29 31 35 37 38 37 36 36 35 36
25 19 18 19 22 24 21 19 19 17 18 20 22 23 22 20 19 18 20 22 22 22 22 23 24 25 29 31 33 34 32 29 28 29 34 38 37 34 32 32 32 33 34 35
39 24 18 20 19 19 19 18 19 18 20 22 21 18 14 13 17 20 21 22 23 22 23 25 29 33 34 32 30 27 27 29 33 37 34 30 28 27 28 30 31 33 36 38
15 21 21 22 21 21 21 21 20 21 20 18 19 20 20 20 21 23 25 27 26 26 28 33 34 30 26 24 24 26 29 28 24 24 24 25 26 28 30 33 36 38 41 44
14 21 22 21 19 20 21 22 23 25 28 30 29 29 29 27 28 29 29 32 31 30 28 25 21 20 21 22 21 19 18 19 20 22 25 28 31 34 37 40 42 45 47 49
18 15 18 16 23 28 30 31 32 32 33 32 32 31 30 30 31 28 23 19 16 14 12 13 13 12 11 12 13 16 19 23 26 29 32 35 38 41 43 46 48 49 50 50
17 18 17 22 23 24 22 22 21 23 26 27 22 20 19 18 15 12 9 8 9 7 6 5 6 8 12 16 20 24 27 30 33 35 38 40 42 43 44 45 47 48 49 49
12 10 11 12 13 13 14 14 13 13 13 11 10 9 7 6 5 3 2 1 1 2 5 9 13 17 21 24 27 30 32 35 36 37 37 39 40 42 43 43 44 44 44 44
4 4 4 5 6 6 11 12 11 10 10 10 10 10 9 7 6 3 1 4 7 11 15 18 21 24 27 29 31 32 31 32 34 36 37 37 38 38 38 38 39 38 38 36
10 12 12 14 14 14 15 17 14 13 12 12 11 8 5 1 2 6 9 12 15 18 20 23 25 26 27 27 28 30 31 32 33 33 34 34 35 35 35 34 34 32 31 30
15 16 15 15 13 13 14 15 12 11 8 5 3 3 5 8 10 13 15 18 20 21 22 22 22 24 25 27 28 29 30 30 31 31 31 30 30 30 30 29 29 29 29 29
11 11 11 12 12 12 10 9 5 3 3 5 8 9 11 13 16 17 18 19 18 18 19 20 22 23 25 26 27 28 28 29 29 29 28 28 28 27 27 27 27 27 27 27
8 9 9 7 6 4 3 3 4 5 7 9 12 13 14 15 15 14 14 15 16 18 19 21 22 23 24 26 27 28 28 28 27 26 26 26 26 26 26 26 26 26 26 25

GFSNGP_700_spd_078.txt.gz
Wind_Speed
32 30 30 26 20 26 29 34 30 31 29 27 28 21 19 16 16 15 18 16 14 10 9 10 8 5 5 6 10 12 12 13 14 14 18 20 21 21 18 18 19 24 26 31
26 30 24 32 37 36 31 28 31 37 35 35 31 31 27 22 20 18 16 14 19 15 15 14 14 9 11 10 10 13 13 15 15 16 19 19 20 21 22 23 23 24 26 29
5 18 21 21 38 33 32 31 29 33 27 25 31 31 21 21 24 25 23 20 21 22 20 19 20 16 14 15 14 17 17 17 20 19 19 20 21 23 24 27 29 31 32 32
4 12 3 11 12 21 30 32 38 39 33 23 22 24 28 27 25 24 23 25 23 27 23 21 20 22 19 18 18 20 21 19 21 23 22 22 23 24 27 31 32 30 31 32
5 8 11 6 3 10 14 22 21 42 41 32 23 24 26 27 23 25 26 26 27 21 19 24 22 21 21 19 21 23 23 21 20 22 24 24 26 28 32 31 27 25 26 28
7 4 3 1 2 8 14 20 23 20 30 22 16 23 24 19 20 15 18 23 24 23 24 24 23 21 20 24 26 24 22 21 20 23 25 27 28 28 27 25 25 24 25 25
16 9 9 15 12 16 11 12 14 16 27 24 11 15 20 23 20 20 15 20 21 22 23 23 22 23 25 26 25 22 20 19 21 23 25 25 24 23 23 24 24 25 27 29
13 8 8 9 10 10 16 18 17 13 13 30 21 14 14 17 16 18 16 19 23 24 26 26 26 25 25 23 21 20 20 21 22 23 24 24 23 23 24 25 27 29 30 32
4 8 11 12 13 10 12 16 19 16 9 9 16 18 24 15 13 19 21 22 24 26 25 23 23 22 22 21 21 21 21 21 21 23 23 24 24 26 27 29 31 32 34 35
19 14 13 15 15 15 13 18 21 20 19 16 7 10 18 26 23 22 22 26 20 21 21 20 19 20 21 23 23 22 21 21 22 22 23 24 25 27 29 31 33 35 36 37
26 22 25 19 13 11 16 22 22 23 17 18 24 17 17 18 17 25 21 24 26 23 21 22 22 23 24 24 23 24 22 22 22 22 22 23 25 27 28 30 32 34 36 38
25 25 24 21 19 17 19 21 20 19 18 17 18 20 23 25 22 21 17 25 18 19 20 20 19 19 22 26 26 26 24 22 24 25 24 22 22 21 20 21 22 26 31 36
27 24 30 20 12 18 18 21 19 21 15 8 8 16 19 19 18 19 14 17 28 24 25 27 24 23 23 22 23 21 23 25 25 24 23 25 26 24 23 22 23 27 32 35
24 24 21 20 20 15 16 18 18 17 17 12 13 14 11 13 22 16 21 21 17 17 20 21 23 27 23 21 23 24 25 25 26 25 26 24 23 24 26 27 31 35 38 39
28 26 20 16 17 17 17 19 20 19 19 16 16 16 18 18 16 17 23 20 21 19 26 22 24 21 22 22 22 21 22 25 26 26 26 26 26 27 30 35 38 38 37 36
18 27 25 16 17 21 20 22 22 21 20 20 18 17 18 21 20 18 18 20 22 22 22 20 20 20 21 21 22 25 27 28 28 26 25 26 29 32 33 31 29 29 31 33
17 20 28 24 20 22 21 19 19 20 19 19 18 18 18 18 17 16 17 19 22 22 22 23 23 23 23 24 26 26 25 22 22 24 26 28 27 25 25 25 27 29 32 35
17 21 19 27 29 22 21 20 20 21 21 22 22 20 19 20 21 21 21 23 24 26 27 28 28 25 23 22 20 18 19 21 22 21 21 20 21 24 27 30 33 36 39 41
20 16 16 21 26 25 25 22 23 23 23 22 23 24 25 25 26 25 25 28 28 31 26 22 16 12 11 13 15 16 15 15 15 18 21 25 28 31 34 37 39 41 42 44
20 20 20 19 11 15 22 24 25 27 27 27 26 25 29 29 28 26 26 23 18 13 9 9 10 11 11 10 10 11 15 19 23 26 29 31 34 35 37 37 38 40 42 43
18 19 21 21 19 21 23 24 24 26 25 24 22 20 19 19 14 9 7 6 6 6 5 5 4 5 8 12 16 20 23 26 28 30 31 32 33 34 36 36 37 38 39 39
13 13 14 15 15 16 15 14 14 14 13 11 8 7 7 8 8 5 4 3 3 2 1 5 9 13 17 20 23 25 26 27 27 28 30 31 32 33 34 34 34 35 36 36
4 4 4 5 5 6 8 9 9 10 10 11 10 10 8 7 7 6 2 1 4 7 11 14 16 19 21 22 22 23 24 26 27 28 29 30 31 31 32 33 33 33 32 31
7 8 8 9 10 11 11 14 13 13 11 12 11 10 7 4 2 3 7 9 11 13 15 17 18 18 18 20 22 24 25 26 27 27 29 30 30 31 31 30 29 28 27 27
13 14 15 15 13 14 15 16 13 12 10 7 4 1 2 5 7 9 12 13 14 15 15 15 17 18 20 22 23 24 25 25 27 28 29 29 28 28 27 27 26 26 26 27
12 12 12 12 12 11 9 8 5 3 1 2 5 8 9 10 11 12 13 13 13 14 16 17 19 20 21 21 22 24 24 25 26 27 27 27 27 26 26 26 26 26 27 26
9 9 8 6 5 3 1 1 3 5 7 8 10 11 12 12 13 13 13 13 14 15 16 17 18 18 20 21 22 23 23 24 25 26 26 26 25 25 25 25 25 25 25 24

GFSNGP_700_spd_084.txt.gz
Wind_Speed
20 21 20 21 22 21 27 35 32 28 29 28 30 24 19 19 22 15 12 11 18 20 18 18 22 27 29 29 26 25 22 21 22 21 25 29 30 32 33 24 29 29 28 32
17 18 21 23 29 29 33 32 33 32 31 20 15 18 20 21 22 22 21 13 16 21 23 18 18 21 25 27 26 24 20 17 17 19 23 24 29 33 35 30 31 32 34 37
10 6 13 25 16 22 36 36 33 29 26 20 18 18 21 20 22 29 24 22 19 24 27 24 21 21 22 20 23 22 19 16 16 19 20 22 23 24 25 31 35 37 39 38
11 13 13 15 27 22 25 33 32 32 27 22 21 21 19 18 28 34 32 31 27 23 31 31 29 27 28 26 25 23 22 20 19 19 19 22 25 26 25 28 33 36 39 40
9 16 16 14 27 15 9 14 23 30 24 22 20 19 21 26 29 30 37 34 31 28 26 24 33 30 30 31 31 29 27 25 25 25 26 26 25 29 30 30 32 34 35 37
13 9 4 4 13 13 12 8 4 7 3 2 6 12 11 22 26 27 25 20 34 32 29 35 36 28 32 30 32 32 33 32 30 30 30 29 27 29 32 32 33 35 36 38
23 9 8 3 7 12 7 0 3 8 6 4 4 10 15 19 17 22 24 25 21 32 36 34 38 41 39 41 38 37 36 37 35 35 33 31 29 29 32 33 33 35 37 38
20 9 9 6 3 5 5 12 3 2 7 5 8 16 13 23 30 28 23 26 27 24 25 32 39 43 41 35 39 36 39 40 38 37 35 32 29 31 31 32 33 34 35 36
13 12 6 7 6 3 8 8 9 9 9 5 12 12 15 15 14 29 27 15 21 28 19 23 29 39 40 46 45 40 38 37 37 37 34 30 30 31 31 32 33 32 32 30
4 0 4 5 15 14 12 9 9 13 12 14 17 14 15 18 18 24 34 29 11 20 32 25 17 20 32 36 37 35 35 36 34 32 31 32 31 32 31 32 31 30 30 32
9 14 19 8 22 22 20 13 13 16 16 19 13 11 11 12 15 17 15 33 20 9 17 24 24 16 25 29 29 31 33 33 32 33 30 29 31 29 27 29 28 29 30 31
8 12 14 16 20 22 22 24 18 19 18 13 9 7 6 7 15 17 12 11 17 10 6 8 13 25 25 24 23 23 25 25 25 25 28 25 27 30 29 27 30 28 24 26
19 18 14 19 20 18 17 16 17 19 18 13 10 8 5 5 5 7 10 9 5 10 16 18 12 15 16 20 19 17 19 21 23 24 24 26 22 20 19 19 19 20 22 24
17 18 19 21 23 19 16 16 17 16 14 14 11 10 9 6 9 9 10 10 10 8 13 10 13 12 15 21 24 21 22 18 19 19 17 16 19 19 20 19 20 22 24 25
26 27 23 17 16 21 22 17 13 15 13 16 17 21 15 12 12 14 14 14 14 14 15 16 17 17 18 18 17 12 12 18 14 18 21 20 19 20 20 21 21 22 24 27
27 25 20 21 19 17 21 22 16 12 12 15 16 16 14 15 14 15 16 15 16 16 16 18 19 20 22 24 22 21 20 21 22 23 23 22 21 20 20 21 23 24 24 24
25 26 25 22 23 22 19 22 22 16 15 15 17 19 22 22 19 21 20 16 15 14 16 17 18 18 21 24 23 22 20 18 18 18 18 17 18 19 19 19 20 21 24 26
26 27 27 27 25 22 21 20 23 24 20 20 21 23 24 21 19 18 17 17 15 14 15 19 19 17 17 17 17 17 17 16 15 15 15 16 16 16 18 20 23 25 26 27
27 29 30 25 23 20 16 15 16 21 24 25 24 21 17 20 21 18 18 18 18 17 21 21 22 19 14 11 10 10 10 10 11 12 13 15 17 19 21 22 23 25 26 27
24 23 21 21 23 24 25 24 20 18 21 27 26 21 22 21 12 16 18 18 18 19 19 17 13 10 9 8 7 7 8 9 12 13 15 17 18 19 21 22 23 24 25 27
19 18 18 18 18 20 19 19 18 15 13 15 10 10 12 10 13 14 13 12 12 12 12 11 9 8 6 6 7 9 10 11 13 15 16 18 19 20 20 21 23 24 26 27
14 13 13 15 16 15 16 16 15 14 12 11 10 9 8 8 9 8 7 6 9 10 9 8 6 6 6 7 9 11 12 14 15 17 17 18 18 19 20 22 23 24 25 26
3 3 4 6 6 7 9 10 10 10 10 11 11 10 9 8 10 11 8 8 7 6 5 4 4 6 8 10 12 13 14 15 15 16 16 17 19 20 21 22 23 24 24 24
7 9 10 12 12 12 11 14 14 14 12 12 11 11 10 9 7 5 4 5 5 2 5 7 8 10 11 12 13 13 14 14 15 16 17 18 19 20 21 22 23 23 24 24
12 12 13 14 14 15 15 16 14 13 12 10 8 7 6 5 5 4 2 4 6 7 8 9 9 10 11 12 13 13 14 15 16 17 18 19 20 21 21 22 23 23 23 23
12 12 13 12 11 11 10 9 6 4 3 3 3 2 1 3 6 7 6 7 8 8 9 10 10 11 12 13 14 14 16 16 17 17 18 19 20 21 22 22 22 22 22 22
8 7 6 5 4 4 3 3 4 4 3 1 2 5 6 6 7 7 8 8 9 9 10 10 11 12 13 14 15 16 16 17 17 18 19 19 20 21 21 21 21 21 21 21

GFSNGP_700_spd_087.txt.gz
Wind_Speed
20 24 19 18 18 19 24 24 28 25 26 24 25 25 21 16 13 13 9 7 9 16 21 27 32 34 34 30 29 27 24 23 22 22 23 24 27 27 29 29 28 27 27 34
17 21 25 28 26 25 26 26 32 30 33 25 22 19 20 25 24 19 15 13 10 13 20 21 24 30 36 35 34 31 29 26 25 26 27 27 30 31 31 31 31 31 28 34
16 14 14 20 28 29 27 24 27 33 31 24 21 21 19 17 19 19 18 18 22 20 17 25 25 25 27 31 33 34 33 31 28 27 27 29 30 31 31 32 36 36 34 30
8 11 10 17 11 17 18 27 28 33 30 27 23 20 20 18 21 21 17 22 23 34 29 23 26 30 28 27 29 30 30 29 28 25 24 24 25 26 27 26 27 30 37 41
8 13 19 23 17 13 16 29 11 16 27 25 25 24 25 19 22 26 33 31 31 30 37 34 30 26 31 31 30 29 29 30 29 26 24 23 23 25 28 28 26 27 31 36
11 12 6 1 2 9 7 13 11 7 5 10 18 17 12 19 29 31 33 32 34 31 34 36 36 37 35 35 36 33 35 35 34 33 32 30 30 30 29 28 30 34 34 36
21 18 12 6 5 8 4 7 8 1 2 8 7 2 5 11 15 22 23 25 28 28 31 37 38 42 35 30 27 30 33 40 41 40 40 39 33 34 34 33 32 35 37 37
23 17 17 9 6 2 7 15 19 12 8 10 6 2 4 6 8 18 28 26 26 29 30 27 40 38 39 43 39 40 42 42 43 45 44 42 41 41 39 36 35 37 39 40
12 17 6 3 3 3 5 8 14 11 9 13 16 9 6 13 12 12 16 17 29 31 33 33 27 39 41 41 47 55 52 44 44 46 47 48 47 42 41 39 39 39 38 40
6 17 14 4 12 3 11 11 12 14 14 11 12 12 8 14 14 13 16 19 17 23 23 30 31 25 25 38 46 47 52 45 45 44 45 46 37 39 46 40 38 38 38 38
8 7 2 5 6 15 17 19 21 19 17 16 14 11 11 11 10 13 18 19 19 17 26 21 24 28 22 21 25 30 34 37 45 40 41 41 41 42 38 42 37 31 32 34
6 9 8 14 18 16 17 18 20 19 18 20 17 12 10 10 10 10 11 13 17 20 21 16 24 15 13 14 12 15 20 26 29 33 34 34 34 35 35 34 34 33 33 36
19 14 17 22 19 18 20 20 16 16 16 19 20 14 12 9 8 7 9 11 15 18 14 15 6 12 11 12 14 20 25 26 25 25 29 31 29 29 28 25 24 23 23 22
17 18 18 20 22 22 22 22 19 16 16 15 16 16 14 13 11 12 10 11 13 14 13 11 21 14 15 13 11 12 14 17 20 19 17 15 16 14 15 16 19 20 22 24
18 19 22 27 24 21 20 19 20 19 17 16 14 16 16 16 17 15 14 13 14 14 14 16 18 13 13 13 13 11 12 14 16 16 14 17 19 21 20 17 19 22 24 23
25 27 27 26 25 22 21 22 22 20 20 19 16 18 19 17 16 20 17 16 15 15 16 15 14 16 17 19 16 20 19 18 17 17 19 18 18 15 16 16 17 19 23 26
25 24 22 23 24 27 25 23 23 21 20 21 19 21 22 22 22 21 20 19 20 17 16 14 13 14 16 18 19 18 16 14 15 15 17 17 19 19 19 19 20 20 20 22
31 29 27 27 26 25 27 30 26 23 21 21 23 24 24 24 25 26 29 28 19 15 15 15 15 15 17 17 15 16 16 15 15 15 16 16 16 16 17 17 18 19 21 23
28 28 26 26 27 28 29 27 23 18 18 19 19 23 28 25 25 28 29 21 15 15 17 17 17 16 18 18 16 15 14 13 13 13 13 14 14 15 16 18 19 21 22 23
24 24 24 24 23 22 22 24 24 23 23 23 21 21 23 27 22 23 24 16 18 17 16 14 14 13 13 13 12 12 11 11 11 11 11 12 14 16 18 19 20 21 22 23
21 20 21 21 20 19 18 18 19 19 19 17 16 14 12 13 15 15 13 11 11 11 11 11 11 9 8 8 8 9 9 9 9 11 13 15 16 17 18 19 20 21 22 23
16 15 15 14 14 15 15 15 15 14 13 12 11 11 11 12 12 10 7 7 8 9 8 8 7 6 7 7 7 6 8 10 12 14 16 17 17 18 19 19 20 21 22 23
7 7 6 6 7 7 7 8 9 9 10 10 10 10 9 8 8 8 7 8 7 5 6 6 7 6 5 6 7 10 12 13 14 15 15 16 17 18 18 19 20 21 22 23
3 4 6 6 7 7 6 8 9 10 9 9 9 8 8 8 7 6 6 6 7 7 6 4 4 5 7 10 12 13 14 15 15 16 16 17 17 18 19 19 20 21 21 22
6 6 8 10 10 10 10 11 10 10 9 7 6 6 6 7 8 8 7 5 3 4 5 7 8 10 11 12 13 14 15 15 16 17 17 17 17 18 18 19 19 20 21 21
7 7 8 8 7 7 6 6 6 4 4 5 6 6 6 6 4 3 3 4 6 7 9 10 11 12 13 14 14 15 15 16 16 16 17 17 17 18 19 19 20 21 21 22
5 5 4 3 3 2 3 4 5 6 7 7 6 5 3 4 5 6 7 8 9 10 11 12 12 13 14 14 15 16 16 16 16 17 17 18 18 19 19 20 21 21 22 22